[{"header": {"dx": 0.06612293990616946, "dy": 0.0552356325346848, "nx": 98, "ny": 59, "la1": 35.046912555036876, "la2": 31.78801023549047, "lo1": -121.43107172385933, "lo2": -114.95102361305473, "refTime": "2026040806", "parameterCategory": 1, "parameterNumber": 2}, "data": [8.23, 8.23, 8.22, 8.59, 8.59, 8.23, 7.96, 7.61, 7.3, 6.67, 5.71, 3.83, 1.9, 0.63, 0.45, 0.0, -1.27, -2.98, -4.11, -4.11, -4.89, -3.48, -3.14, -2.84, -2.84, -1.84, -1.33, -0.61, -0.61, 0.0, 0.0, 0.54, 1.24, 1.86, 2.6, 3.13, 3.58, 3.53, 3.13, 1.79, 0.99, 1.33, 2.68, 5.37, 7.47, 9.92, 12.16, 13.14, 13.14, 13.1, 8.93, 2.6, 0.66, 0.73, 2.2, 3.22, 4.43, 5.09, 5.69, 6.4, 6.79, 6.07, 4.24, 2.8, 2.5, 3.14, 4.84, 6.0, 6.94, 9.33, 10.25, 9.58, 8.63, 6.98, 5.64, 5.6, 6.64, 8.76, 10.49, 9.26, 6.21, 4.24, 3.32, 2.91, 2.12, 2.12, 2.6, 3.53, 4.47, 7.15, 7.15, 4.47, 3.13, 3.13, 3.58, 4.02, 4.47, 4.47, 8.23, 8.22, 8.51, 8.59, 8.86, 8.59, 8.24, 7.95, 7.32, 6.69, 5.44, 3.79, 2.5, 1.7, 1.79, 1.34, 0.0, -2.07, -4.11, -3.79, -5.37, -5.37, -3.48, -3.22, -2.53, -2.15, -1.88, -1.4, -1.16, -1.16, -0.61, 0.0, 0.0, 0.95, 1.79, 2.68, 3.53, 3.97, 3.97, 3.07, 1.9, 1.49, 3.99, 6.31, 8.37, 10.75, 12.45, 12.45, 12.52, 10.9, 3.82, 0.61, 0.66, 2.0, 2.2, 3.22, 4.01, 5.09, 6.07, 6.64, 7.28, 6.79, 4.4, 3.22, 2.84, 3.84, 5.09, 6.0, 6.94, 8.4, 10.01, 10.25, 9.11, 7.89, 6.07, 5.86, 7.47, 8.76, 10.49, 9.26, 6.21, 4.24, 3.32, 2.91, 2.12, 2.12, 2.6, 3.53, 4.47, 7.15, 7.15, 4.47, 3.13, 3.13, 3.58, 4.02, 4.47, 4.47, 8.87, 8.59, 8.59, 8.59, 8.59, 8.59, 8.23, 7.96, 7.65, 6.98, 5.72, 4.1, 2.51, 1.9, 1.7, 1.34, 1.2, -0.61, -2.73, -4.47, -4.07, -6.01, -6.01, -5.06, -2.84, -2.5, -1.9, -1.88, -1.88, -2.07, -1.84, -1.16, -1.0, 0.0, 0.63, 2.12, 3.53, 3.82, 4.73, 4.52, 3.48, 4.2, 6.1, 8.5, 9.42, 10.98, 11.53, 11.38, 9.8, 5.09, 1.58, 1.49, 1.49, 2.0, 1.94, 2.88, 3.64, 5.09, 6.44, 7.35, 7.71, 6.36, 4.46, 3.79, 3.79, 4.43, 5.72, 6.7, 7.07, 7.85, 9.2, 10.52, 10.49, 8.8, 5.31, 4.87, 7.56, 10.75, 11.54, 9.81, 6.71, 5.77, 5.32, 3.53, 1.7, 1.26, 2.4, 3.53, 4.92, 7.56, 6.71, 4.47, 3.13, 3.13, 3.13, 3.58, 3.58, 4.02, 8.59, 8.59, 8.59, 8.59, 8.59, 8.59, 8.59, 8.24, 7.95, 7.32, 5.72, 4.46, 2.3, 1.88, 1.86, 1.86, 2.4, 1.2, -1.27, -3.72, -3.43, -4.11, -5.69, -6.01, -6.08, -3.22, -3.07, -2.5, -1.88, -1.84, -2.2, -3.22, -3.43, -2.15, 0.0, 1.9, 2.86, 4.6, 6.7, 7.02, 7.82, 7.58, 7.82, 8.5, 8.61, 9.31, 9.17, 7.59, 3.49, 2.4, 2.51, 2.79, 2.07, 1.55, 2.04, 3.11, 4.01, 5.09, 6.64, 7.47, 7.71, 6.28, 4.46, 3.72, 4.36, 5.06, 6.08, 6.96, 7.59, 8.55, 10.23, 11.45, 11.84, 8.84, 4.92, 3.82, 5.86, 10.62, 12.96, 10.73, 5.78, 4.47, 4.92, 3.58, 1.6, 1.26, 2.91, 4.02, 5.64, 5.64, 4.47, 3.53, 2.17, 2.24, 2.24, 2.4, 3.07, 3.82, 8.59, 8.59, 8.59, 8.59, 8.59, 8.86, 8.59, 8.23, 7.96, 7.33, 6.08, 3.84, 1.4, 1.2, 1.61, 1.9, 2.21, 2.53, 0.61, -2.44, -5.69, -4.54, -3.93, -6.32, -6.08, -6.7, -4.6, -2.53, -1.4, -1.16, -1.27, -3.0, -5.28, -4.5, 0.0, 1.96, 2.99, 5.46, 8.01, 8.2, 8.46, 7.63, 5.86, 5.43, 6.07, 6.94, 6.36, 4.87, 3.53, 4.46, 4.46, 3.48, 2.3, 1.47, 2.29, 3.72, 4.81, 5.46, 7.03, 8.4, 7.71, 5.43, 4.11, 3.9, 5.37, 6.06, 6.08, 6.08, 6.7, 8.32, 10.4, 12.56, 12.3, 10.75, 6.55, 3.07, 3.43, 7.67, 11.66, 11.09, 4.43, 3.07, 4.02, 3.58, 1.79, 1.79, 3.53, 4.73, 4.73, 3.53, 2.49, 1.88, 1.24, 0.95, 0.71, 1.33, 2.79, 3.72, 8.87, 8.59, 8.59, 8.59, 8.87, 8.86, 8.86, 8.22, 7.96, 7.61, 5.72, 2.8, 1.0, 1.58, 1.9, 1.9, 1.88, 2.53, 2.07, -1.35, -6.14, -6.14, -7.47, -6.91, -6.32, -6.18, -6.01, -3.72, -1.99, -0.79, 0.0, 0.0, -1.52, -3.16, -0.71, 0.7, 2.25, 5.99, 8.72, 7.69, 5.3, 3.2, 2.79, 4.43, 7.6, 8.94, 8.94, 7.6, 6.55, 5.16, 4.66, 3.45, 2.84, 2.3, 2.3, 3.48, 4.46, 5.43, 6.94, 8.82, 7.71, 4.46, 3.72, 4.65, 6.08, 7.07, 6.64, 5.43, 5.05, 7.2, 10.25, 11.23, 11.62, 11.62, 10.95, 6.22, 2.51, 2.98, 5.34, 8.91, 3.53, 2.5, 4.0, 4.0, 3.07, 2.53, 3.16, 3.72, 2.49, 0.89, -0.0, 1.2, 1.2, -0.0, -0.0, 1.23, 2.73, 3.48, 8.59, 8.87, 8.87, 8.59, 8.87, 8.86, 8.58, 8.59, 8.23, 7.61, 5.08, 2.82, 1.24, 1.7, 3.82, 1.86, 2.5, 3.07, 4.65, 1.23, -1.88, -6.71, -8.56, -9.24, -7.68, -6.2, -5.4, -4.15, -3.11, -2.35, -0.76, 0.0, 0.65, 0.0, 0.0, 0.0, 0.75, 5.18, 7.41, 4.6, 2.09, 1.03, 2.12, 5.37, 8.34, 9.08, 9.58, 8.91, 7.15, 7.6, 6.26, 3.51, 2.53, 2.07, 2.84, 3.49, 4.46, 5.05, 6.79, 8.19, 7.21, 4.46, 4.46, 5.05, 5.05, 6.4, 6.94, 5.59, 4.41, 6.71, 8.94, 9.36, 9.36, 11.08, 11.08, 10.62, 4.92, 2.0, 2.17, 4.92, 3.98, 3.16, 3.64, 4.36, 3.72, 3.26, 3.55, 1.84, 0.0, -0.63, -0.45, -0.0, -0.0, -0.0, 0.61, 1.94, 2.73, 3.48, 8.59, 8.59, 8.87, 8.59, 8.59, 8.86, 8.58, 8.59, 8.23, 6.7, 4.69, 2.32, 1.4, 2.15, 4.98, 2.4, 3.32, 5.09, 5.72, 5.05, 2.91, 1.88, -1.35, -7.58, -8.5, -6.64, -5.33, -5.55, -5.64, -5.46, -3.0, -0.79, 0.79, 1.84, 2.06, 0.7, 0.71, 2.25, 5.46, 4.21, 3.0, 2.06, 2.16, 4.38, 6.42, 6.45, 6.7, 8.4, 8.36, 8.87, 4.43, 3.58, 2.53, 3.07, 3.79, 4.11, 4.81, 5.69, 6.94, 7.47, 6.94, 5.34, 4.24, 4.24, 3.32, 4.0, 6.98, 6.71, 3.97, 4.87, 7.15, 8.05, 9.36, 10.93, 11.08, 10.26, 8.82, 5.44, 5.16, 8.91, 9.83, 5.72, 4.22, 4.14, 3.51, 2.75, 1.88, 0.0, -1.24, -1.24, -1.34, -1.2, -1.11, -0.0, 0.61, 2.44, 3.15, 3.16, 8.87, 8.59, 8.59, 8.86, 8.86, 8.85, 8.58, 8.59, 7.59, 6.31, 4.66, 3.37, 2.09, 2.4, 3.11, 3.84, 4.46, 5.46, 5.05, 3.74, 3.13, 3.51, 4.41, 0.66, -4.5, -5.64, -4.4, -6.45, -8.32, -5.21, -3.08, -1.05, 0.0, 2.1, 2.28, 2.28, 1.02, 1.07, 2.28, 3.45, 3.25, 3.21, 4.43, 4.12, 3.21, 2.25, 3.39, 6.4, 7.32, 8.0, 7.81, 3.13, 2.84, 3.43, 4.43, 5.09, 5.72, 7.03, 7.89, 7.89, 7.71, 6.55, 4.85, 3.04, 2.23, 3.74, 7.56, 7.15, 3.13, 2.68, 4.92, 8.02, 10.62, 10.84, 10.08, 8.46, 6.71, 7.92, 10.16, 11.54, 12.49, 5.94, 3.12, 2.72, 2.0, 1.23, 0.0, -0.65, -1.61, -1.86, -1.58, -2.23, -2.22, -0.57, 0.57, 2.48, 3.43, 3.72, 8.86, 8.86, 9.21, 9.22, 8.85, 8.85, 8.85, 8.22, 7.59, 6.31, 5.69, 5.04, 4.57, 3.47, 2.51, 3.11, 4.07, 4.92, 4.2, 3.17, 0.95, 1.84, 3.91, 3.16, 0.0, -5.2, -5.44, -6.44, -7.43, -4.48, -1.09, 0.0, 0.0, 0.0, 0.0, 1.01, 3.72, 2.8, 1.95, 2.97, 2.31, 3.02, 1.8, 0.6, 0.0, 0.7, 1.52, 2.89, 5.18, 6.32, 3.07, 2.4, 2.51, 3.72, 4.74, 6.08, 7.03, 7.89, 8.19, 8.36, 8.36, 7.56, 7.6, 2.6, 2.23, 3.32, 7.11, 7.04, 3.53, 2.68, 5.36, 9.36, 11.09, 10.98, 10.19, 8.46, 7.01, 7.45, 9.29, 11.6, 12.52, 12.52, 3.6, 1.94, 2.6, 2.44, 2.21, 0.6, -0.6, -0.89, -1.2, -1.8, -2.51, -1.61, 0.53, 2.79, 3.6, 3.6, 9.21, 9.21, 9.5, 9.22, 8.85, 8.85, 8.58, 8.22, 7.59, 6.56, 6.31, 6.7, 7.22, 5.64, 3.29, 2.28, 4.1, 3.93, 3.44, 2.9, 0.78, 0.0, 0.79, 3.0, 0.0, -2.53, -6.4, -5.9, -6.44, -3.25, 0.0, 0.81, 0.0, -1.58, -1.52, 0.0, 4.4, 5.46, 2.44, 1.13, 0.0, -0.57, -1.2, -1.13, -1.6, -1.34, -0.65, 0.0, 0.0, 0.0, 0.0, 0.6, 2.5, 3.84, 5.09, 6.64, 7.89, 8.36, 8.46, 8.49, 8.05, 6.71, 3.51, 1.86, 1.86, 3.32, 6.36, 6.79, 5.64, 5.36, 7.56, 10.08, 11.45, 10.98, 10.19, 10.19, 8.97, 7.47, 8.14, 10.43, 11.75, 12.44, 11.18, 4.0, 3.48, 5.05, 6.58, 5.36, 3.13, 1.79, 0.6, -1.2, -1.84, -1.2, 0.57, 2.4, 2.91, 2.49, 9.21, 9.21, 9.21, 8.85, 8.85, 8.85, 8.86, 7.96, 6.94, 6.7, 6.94, 7.59, 7.59, 7.6, 6.69, 5.06, 3.97, 4.51, 4.1, 3.29, 2.15, 0.52, 0.0, 0.98, 1.49, 0.8, -0.65, -1.9, -1.88, -0.88, 0.0, 0.63, 0.0, -1.3, -3.02, 0.0, 2.82, 2.66, 0.57, -1.34, -1.9, -1.88, -1.16, -1.0, -1.6, -3.07, -3.13, -2.6, -2.68, -2.6, -1.26, 0.0, 1.79, 3.07, 4.24, 6.07, 7.89, 7.92, 7.15, 5.77, 4.47, 3.51, 1.86, 0.63, 1.2, 2.91, 5.6, 7.2, 7.21, 6.71, 8.01, 9.62, 10.37, 10.02, 9.58, 10.75, 10.25, 8.55, 8.76, 9.78, 9.27, 8.91, 9.81, 8.05, 5.32, 6.22, 8.91, 9.81, 8.02, 4.02, 2.24, -0.0, -1.0, -0.71, 0.6, 2.12, 1.79, 1.7, 9.21, 9.21, 9.21, 8.86, 8.86, 8.86, 8.59, 8.23, 7.59, 6.94, 7.59, 7.96, 8.23, 8.59, 9.13, 8.45, 6.92, 5.44, 4.44, 4.63, 3.83, 3.2, 2.53, 2.44, 3.7, 3.99, 3.13, 1.49, -0.0, -0.89, -1.2, -0.63, -0.54, 0.45, 0.0, 0.0, 0.0, 0.0, -1.2, -1.79, -2.24, -1.86, -1.26, -0.63, -1.26, -2.5, -3.22, -3.22, -2.86, -2.21, -1.6, -0.59, 0.0, 1.61, 3.2, 4.15, 4.47, 5.73, 3.53, 1.79, 0.63, 0.57, -0.0, -0.45, 0.0, 0.89, 2.68, 4.46, 4.46, 4.24, 4.41, 4.92, 6.07, 6.79, 8.4, 10.43, 10.68, 9.27, 9.14, 8.18, 5.95, 5.09, 8.52, 10.52, 8.05, 8.49, 10.7, 10.08, 8.39, 5.78, 3.58, 1.7, -0.0, -0.0, 0.63, 1.34, 0.89, 0.89, 9.21, 9.21, 9.21, 8.86, 8.86, 8.59, 8.22, 7.96, 7.59, 7.59, 7.96, 8.23, 8.59, 8.59, 9.5, 10.06, 9.3, 7.9, 6.23, 5.37, 5.95, 6.56, 6.1, 5.4, 5.4, 5.4, 4.66, 2.17, -0.4, -1.88, -1.9, -1.24, -0.8, -0.0, -0.0, -0.0, -0.0, -0.0, -0.45, -1.26, -1.84, -1.35, -0.96, 0.0, 0.0, -0.99, -2.2, -3.17, -2.98, -2.21, -1.96, -1.0, 0.0, 1.09, 2.06, 2.04, 1.88, 3.13, 2.6, -0.0, -1.7, -1.58, -1.26, -1.79, -1.9, -0.57, 0.45, 1.7, 2.0, 2.21, 1.84, 1.2, 1.7, 3.07, 5.6, 8.63, 8.8, 7.6, 6.07, 4.4, 2.86, 4.43, 7.87, 9.4, 9.4, 10.02, 10.96, 10.02, 7.48, 5.36, 5.32, 3.98, 2.24, 0.63, 0.89, 0.45, 0.0, 0.45, 9.5, 9.21, 9.21, 8.86, 8.59, 8.59, 8.23, 7.96, 7.96, 8.23, 8.23, 8.59, 8.59, 8.86, 9.5, 10.12, 10.3, 9.5, 8.27, 6.98, 7.9, 8.96, 9.3, 9.01, 8.1, 7.08, 5.37, 3.09, 0.63, -0.6, -1.26, -0.95, -0.95, -0.0, -0.0, 0.8, 0.95, -0.0, -0.89, -1.9, -1.13, -1.03, -0.96, -1.9, -2.24, 1.34, 0.0, 0.0, -0.96, -3.17, -2.04, 0.0, 1.0, 0.0, 0.0, 0.66, 0.7, 2.5, 2.68, 0.0, -1.79, -2.24, -1.6, -1.79, -1.74, -1.6, 0.0, 0.8, 1.2, -0.0, -0.59, -0.59, -0.0, 1.2, 3.07, 4.66, 3.97, 3.13, 2.68, 2.6, 2.8, 3.84, 5.72, 6.9, 5.72, 8.67, 10.01, 10.02, 7.6, 6.22, 6.98, 6.22, 3.58, 2.4, 1.9, 0.0, 0.45, 0.45, 9.5, 9.5, 9.21, 8.86, 8.59, 8.23, 7.96, 7.96, 8.23, 8.87, 8.59, 8.86, 8.86, 9.21, 9.5, 9.84, 10.4, 10.3, 9.3, 8.29, 8.72, 9.63, 10.68, 10.91, 10.71, 9.51, 7.58, 5.09, 3.53, 2.24, 1.34, 0.63, -0.0, -0.0, -0.0, 1.24, 0.6, -0.6, -2.12, -2.24, -2.15, -1.86, -1.34, -2.4, -2.53, -1.27, -1.4, -0.0, 0.0, -0.6, -0.76, 0.0, 0.0, 0.45, 0.45, 0.95, 1.49, 1.24, 0.95, 0.45, 0.45, -0.45, -0.45, 0.45, 0.0, 0.0, 0.0, 0.0, -0.63, -1.9, -2.53, -0.54, -0.0, 0.6, 1.7, 1.86, 1.88, 2.15, 1.9, 1.79, 2.17, 2.91, 4.0, 4.93, 4.4, 3.49, 7.03, 8.19, 7.15, 6.22, 7.56, 5.32, 3.07, 3.35, 3.2, 2.17, 1.34, 1.34, 9.5, 9.5, 9.5, 8.87, 8.59, 7.96, 7.96, 7.96, 8.59, 8.87, 8.86, 8.86, 9.21, 9.21, 9.5, 10.13, 10.4, 10.36, 10.23, 9.86, 9.76, 9.92, 10.68, 11.21, 11.28, 10.6, 9.37, 8.49, 7.6, 6.71, 4.92, 3.13, 1.34, -0.0, -0.0, -0.0, -1.61, -2.12, -2.12, -1.79, -2.24, -2.68, -2.24, -1.7, -1.2, -1.4, -1.4, -1.2, -0.0, -0.0, -0.0, -0.0, -0.0, -0.0, -0.0, 1.79, 0.89, 0.45, 0.45, 0.45, 0.89, -0.0, -0.0, -0.0, -0.0, 1.2, 1.49, 0.0, -2.24, -3.32, -2.6, -1.34, -0.63, 0.45, 0.0, -0.0, 1.27, 1.27, 1.2, 0.63, 0.89, 2.17, 3.32, 4.11, 3.82, 2.5, 3.49, 3.97, 4.47, 6.26, 8.02, 6.42, 3.72, 3.6, 4.0, 3.87, 3.09, 3.09, 9.5, 9.5, 9.5, 8.87, 8.23, 7.96, 7.96, 8.23, 8.87, 9.5, 9.21, 9.21, 9.21, 9.21, 9.21, 10.12, 10.4, 10.4, 10.3, 10.41, 10.16, 10.91, 11.12, 10.81, 11.16, 11.18, 10.73, 10.28, 9.82, 8.87, 7.43, 5.57, 3.09, 1.34, -0.0, -1.6, -2.53, -3.13, -2.24, -1.79, -1.79, -2.68, -3.04, -1.79, -1.79, -0.0, -0.0, -0.0, -0.0, -0.0, -0.0, -0.0, -0.0, -0.0, -0.0, 1.26, 1.58, -0.0, -0.0, -0.0, 1.58, 1.58, 1.26, -0.0, -1.27, -0.6, 0.63, 0.65, -1.6, -3.58, -2.8, -1.61, -1.2, -1.24, -2.24, -1.24, -0.0, 1.33, 1.2, -0.0, 0.0, 0.99, 1.88, 2.21, 1.24, 0.54, 1.16, 2.4, 3.32, 3.87, 4.87, 6.13, 4.8, 4.3, 4.3, 4.0, 3.6, 3.6, 9.5, 9.5, 9.21, 8.87, 7.96, 8.24, 7.96, 8.59, 9.21, 9.5, 9.21, 9.21, 9.21, 9.21, 8.59, 9.4, 9.82, 10.4, 10.01, 10.4, 11.81, 12.6, 11.21, 9.83, 9.26, 11.12, 8.79, 9.54, 8.91, 7.81, 7.31, 5.75, 4.27, 1.86, -0.0, -1.84, -3.43, -3.39, -3.13, -2.54, -1.79, -1.7, -1.79, -2.68, -1.79, 1.34, -0.0, -0.0, -0.0, -0.0, -0.0, -0.0, -0.0, -0.0, -0.0, 1.4, 1.9, 2.24, 2.24, 2.24, 2.24, 2.24, -0.0, -0.71, -1.88, -1.58, 0.0, 1.9, 1.58, 0.0, 0.0, 1.9, 3.07, 2.12, 0.0, -0.45, 0.45, 1.79, 2.24, 1.34, 0.71, 0.53, 0.0, 0.0, 0.0, 0.0, 0.63, 1.8, 2.53, 2.5, 3.13, 4.3, 5.64, 4.44, 3.97, 3.6, 4.0, 4.0, 9.5, 9.5, 9.21, 8.59, 8.24, 8.24, 8.24, 8.59, 9.21, 9.5, 9.21, 9.21, 9.21, 9.5, 9.21, 9.21, 9.5, 8.58, 7.59, 7.68, 11.75, 12.9, 12.28, 9.92, 8.65, 8.94, 8.32, 7.35, 7.64, 7.09, 5.88, 4.74, 3.2, 1.88, 0.0, -1.26, -2.53, -3.2, -3.58, -3.58, -3.13, -2.91, -2.5, -1.9, -0.95, 0.89, 0.89, -0.0, -0.0, -0.0, -0.0, -0.0, -0.0, -0.0, -0.0, 1.24, 3.35, 1.79, 1.79, 2.8, 1.58, 1.34, 1.34, -2.84, -1.49, -1.86, -0.89, 0.89, 2.68, 3.51, 5.31, 9.26, 12.42, 12.52, 8.19, 2.84, 1.84, 2.07, 2.15, 1.86, 1.58, 1.2, 0.61, 0.0, 0.0, 0.0, 0.59, 2.15, 2.21, 1.86, 1.86, 3.97, 4.92, 4.47, 3.13, 3.53, 3.87, 3.87, 9.21, 9.5, 9.21, 8.87, 8.24, 8.24, 8.24, 8.59, 9.21, 9.5, 9.82, 9.82, 9.82, 9.5, 9.21, 9.84, 9.21, 7.6, 6.33, 7.73, 10.86, 11.87, 12.37, 10.88, 10.36, 9.72, 8.19, 6.95, 6.64, 5.41, 4.47, 3.22, 2.2, 1.16, 0.0, -0.45, -1.26, -2.4, -2.63, -2.63, -2.63, -2.4, -2.5, -1.61, -1.24, -0.0, 0.89, -0.0, -1.4, -1.13, -1.13, -0.0, -0.0, -0.0, -0.0, 1.58, 2.8, 2.4, 2.4, 1.2, 0.0, -1.34, -2.8, -3.82, -1.6, -1.7, -1.7, -0.6, 0.54, 2.98, 6.39, 9.84, 12.14, 12.07, 10.01, 6.88, 4.2, 2.9, 1.8, 2.21, 2.5, 3.07, 3.07, 2.68, 2.15, 2.5, 2.63, 3.53, 4.52, 3.98, 3.32, 3.35, 4.3, 3.98, 2.17, 2.24, 3.58, 3.58, 9.21, 9.21, 9.21, 8.87, 8.24, 8.24, 8.58, 8.91, 9.21, 9.82, 9.82, 10.13, 10.13, 9.82, 10.13, 9.84, 9.21, 8.24, 7.96, 9.21, 10.75, 11.03, 10.99, 10.72, 10.99, 10.94, 10.01, 8.15, 6.28, 3.83, 2.6, 1.58, 1.11, 0.53, 0.0, 0.0, -0.63, -1.26, -1.49, -1.7, -1.86, -1.86, -1.9, -1.88, -1.0, -0.6, -0.0, -1.9, -1.6, -1.13, -0.0, -0.0, -0.0, -0.0, 1.2, 2.53, 1.2, -0.0, -1.34, -2.4, -1.7, -2.24, -1.86, -1.6, -1.6, -1.26, -1.26, -1.26, -0.54, -0.0, 1.6, 5.24, 3.72, 2.91, 3.09, 4.15, 4.84, 4.23, 2.82, 1.8, 2.53, 3.2, 3.82, 4.02, 4.47, 4.02, 3.98, 3.82, 4.3, 5.2, 4.47, 3.6, 3.6, 3.07, 1.7, 1.79, 3.13, 3.13, 9.8, 9.8, 9.21, 8.87, 8.58, 8.58, 8.87, 9.5, 9.21, 9.82, 9.82, 9.82, 10.13, 10.13, 10.13, 10.13, 9.19, 7.96, 8.58, 10.4, 11.58, 11.52, 10.6, 10.36, 10.4, 10.94, 10.88, 9.86, 7.09, 3.43, 0.99, 0.0, 0.0, 0.0, 0.0, 0.45, -0.32, -0.63, -1.2, -0.95, -1.26, -1.24, -1.61, -1.61, -1.13, -1.16, -1.2, -1.4, -1.6, -0.0, -0.0, -0.0, -0.0, -0.0, -0.0, 1.4, -0.0, -2.15, -2.6, -2.24, -2.24, -2.17, -1.26, -0.8, -1.26, -0.71, -0.57, -0.63, -0.89, -0.32, 0.45, 0.45, -0.0, 0.0, 0.0, 2.17, 3.53, 3.53, 2.76, 1.36, 1.58, 2.23, 3.07, 3.53, 3.58, 3.53, 3.53, 3.53, 4.02, 4.87, 4.88, 3.58, 3.07, 2.0, 1.2, 2.12, 3.53, 3.53, 9.8, 9.8, 9.5, 9.19, 8.58, 8.58, 8.87, 9.5, 9.8, 9.82, 9.82, 9.82, 10.13, 10.13, 10.13, 9.82, 9.19, 8.58, 9.19, 10.36, 11.52, 12.37, 11.72, 10.8, 10.59, 10.88, 10.88, 10.51, 8.65, 5.21, 1.86, 0.63, 0.0, 0.0, 0.45, 0.0, 0.0, -0.0, -0.0, -0.0, -0.6, -0.57, -1.2, -1.16, -1.13, -1.84, -1.4, -0.0, -0.0, -0.0, -0.0, -0.0, -0.0, -0.0, -0.0, -0.0, -0.0, -2.17, -2.68, -1.6, -1.26, -1.7, -1.2, -0.6, -1.24, -0.71, -0.0, -0.0, 0.45, 0.45, 0.0, 0.0, 0.45, 0.0, 0.0, 0.0, 2.09, 3.3, 3.14, 1.32, 1.19, 1.11, 2.23, 2.79, 2.91, 2.63, 3.13, 3.09, 3.58, 3.82, 5.86, 4.66, 3.39, 1.7, 0.99, 2.0, 3.53, 3.53, 9.5, 9.5, 9.5, 9.19, 9.19, 8.58, 9.19, 9.5, 9.8, 10.12, 9.82, 9.82, 10.13, 10.43, 10.43, 9.82, 9.19, 8.87, 9.48, 10.36, 11.8, 12.37, 12.27, 12.16, 11.24, 11.07, 11.07, 10.51, 9.5, 7.35, 4.55, 2.4, 1.7, 0.89, 0.45, 0.0, 0.0, 0.0, 0.0, -0.0, -0.0, -0.0, -0.0, -0.53, -0.61, -0.61, -0.54, -0.0, -0.0, -0.0, -0.61, -0.0, -0.0, -0.0, -0.0, -0.0, -0.0, -0.63, -2.12, -1.2, 0.0, 0.0, -0.89, -1.24, -0.71, -0.71, -0.0, -0.0, -0.89, 0.0, 1.24, 2.53, 3.95, 4.02, 3.13, 2.24, 1.86, 1.84, 2.95, 1.27, 0.61, 1.19, 1.76, 2.23, 2.53, 2.21, 2.68, 2.91, 2.24, 1.58, 2.23, 5.72, 4.93, 3.39, 2.24, 2.68, 3.13, 3.13, 9.5, 9.5, 9.19, 9.19, 9.19, 8.58, 8.88, 9.8, 9.8, 9.8, 10.12, 9.82, 9.82, 10.43, 10.13, 9.8, 9.19, 9.19, 9.77, 10.36, 11.52, 12.0, 12.37, 12.27, 12.16, 11.62, 11.34, 10.41, 9.5, 8.55, 6.7, 5.08, 3.7, 2.63, 1.7, 1.2, 0.63, 0.89, 0.89, 0.89, 0.63, 0.57, -0.0, -0.0, -0.0, -0.0, -0.0, -0.0, -0.0, -0.53, -1.84, -1.61, -1.13, -0.0, -0.0, -0.0, -0.0, -0.0, -0.45, -1.26, 0.0, 0.45, -0.0, -0.57, -0.57, -0.0, -0.0, -0.57, -0.89, 0.45, 0.57, 2.53, 4.73, 6.71, 6.98, 6.0, 3.39, 2.21, 2.53, 2.53, 1.27, 1.3, 1.73, 1.76, 1.6, 1.88, 2.5, 2.4, 0.89, 0.57, 1.2, 4.11, 5.58, 5.6, 4.11, 3.82, 3.6, 3.6, 9.48, 9.48, 9.19, 9.48, 9.17, 9.17, 9.48, 9.19, 9.8, 9.8, 10.12, 10.12, 10.12, 10.43, 9.82, 9.5, 9.19, 9.19, 9.8, 10.94, 11.8, 11.8, 12.0, 12.27, 12.27, 12.7, 11.78, 10.96, 9.76, 8.29, 7.72, 6.79, 6.41, 5.75, 5.31, 4.6, 3.7, 3.39, 3.07, 2.68, 2.17, 1.86, 1.2, 0.53, 1.16, 1.2, 0.65, -0.0, -0.0, -1.2, -1.84, -2.51, -1.98, -1.6, -0.71, -0.57, -1.2, -0.0, -0.0, 0.0, -0.71, 0.0, 0.45, -0.0, -0.0, -0.0, -0.0, -0.45, -0.63, 0.0, 0.54, 1.84, 3.79, 5.16, 4.87, 4.09, 2.21, 1.2, 1.2, 2.53, 2.51, 1.94, 1.88, 1.23, 0.57, 0.51, 1.61, 1.6, 1.2, 0.57, 1.26, 2.91, 5.05, 6.13, 5.6, 4.66, 4.27, 4.27, 9.77, 9.77, 9.48, 9.48, 9.17, 9.17, 9.48, 9.77, 9.8, 9.8, 9.8, 10.12, 10.4, 10.4, 9.8, 9.19, 9.19, 9.8, 10.4, 11.28, 11.8, 11.8, 12.0, 12.27, 12.27, 12.45, 12.54, 11.62, 10.41, 8.65, 7.64, 7.07, 6.95, 6.8, 6.51, 5.81, 5.4, 4.66, 4.34, 3.54, 3.13, 2.4, 2.15, 2.53, 2.84, 2.84, 1.58, -0.0, -0.8, -1.24, -1.88, -1.84, -2.23, -1.8, -1.8, -0.71, -1.2, -1.2, -0.0, -0.0, 0.0, 0.0, 0.0, -0.0, -0.0, -0.0, 0.0, -0.6, -0.57, 0.0, 0.54, 1.88, 3.48, 2.79, 2.4, 0.89, -0.0, -0.0, 1.26, 2.21, 3.14, 3.73, 2.61, 0.59, 0.0, 0.0, 0.0, 0.0, 1.26, 1.26, 1.2, 2.24, 4.3, 5.51, 5.94, 5.2, 4.8, 4.8, 9.77, 9.77, 9.48, 9.48, 9.17, 9.17, 9.48, 9.77, 10.09, 9.8, 9.8, 10.12, 10.4, 10.12, 9.8, 9.48, 9.48, 9.8, 10.4, 10.94, 11.8, 11.8, 12.0, 11.9, 11.9, 12.16, 12.42, 11.78, 10.96, 9.21, 7.9, 7.23, 6.95, 6.8, 6.8, 6.6, 6.3, 5.88, 5.14, 4.88, 3.58, 3.09, 2.49, 1.86, 1.49, 2.86, 1.61, -0.0, -0.63, -0.99, -1.0, -1.2, -1.61, -1.6, -1.6, -1.61, -1.2, -1.2, -0.6, -0.6, -0.45, 0.0, 0.0, 0.0, -0.0, -0.0, -0.45, -0.63, -1.2, -0.57, 0.54, 2.86, 5.05, 4.36, 3.0, 0.61, -0.45, -0.0, 0.45, 1.86, 2.68, 3.88, 2.98, 1.0, 0.0, -0.95, -1.34, -0.89, -0.0, 0.89, 0.89, 1.34, 2.68, 4.77, 5.2, 5.44, 5.02, 5.02, 9.77, 9.77, 9.48, 9.48, 9.17, 9.17, 9.48, 9.77, 10.09, 10.36, 10.36, 10.07, 10.12, 9.8, 9.48, 9.48, 9.77, 10.12, 10.69, 10.94, 11.8, 11.8, 11.72, 11.72, 11.99, 12.16, 12.42, 12.03, 10.96, 9.38, 8.43, 7.61, 7.48, 7.31, 7.31, 7.51, 7.09, 6.79, 6.04, 5.26, 4.47, 4.02, 3.58, 2.63, 2.15, 1.58, 1.86, 1.7, 0.63, 0.8, 1.24, 1.24, -0.0, -0.53, -1.16, -1.16, -1.2, -1.2, -0.57, -1.26, -1.79, -0.63, 0.0, -0.63, -0.0, -0.6, -1.2, -0.89, -0.89, -0.8, 0.0, 2.53, 6.07, 7.89, 7.31, 5.3, 2.53, 0.63, 0.45, 1.34, 2.15, 3.09, 2.98, 2.15, 0.6, -0.45, -1.79, -2.24, -1.34, -0.45, -0.45, 0.0, 1.79, 3.97, 4.34, 4.77, 5.02, 5.02, 9.77, 9.77, 9.48, 9.17, 9.17, 9.17, 9.77, 9.77, 10.09, 10.36, 10.36, 10.36, 10.09, 9.77, 9.48, 9.48, 10.09, 10.4, 10.69, 10.94, 11.44, 11.44, 11.72, 11.72, 11.62, 12.16, 12.16, 12.03, 10.83, 9.63, 8.96, 8.68, 8.15, 8.0, 7.81, 7.58, 7.51, 7.26, 6.51, 6.16, 5.34, 4.92, 4.02, 3.58, 2.63, 1.79, 2.68, 3.98, 3.39, 2.68, 3.07, 2.68, 2.5, -0.0, -0.0, -0.65, -0.65, -0.65, -1.2, -1.86, -1.79, -1.2, -0.95, -0.63, 0.45, -0.63, -0.89, 0.45, 0.63, 1.58, 1.33, 1.27, 3.45, 7.6, 10.16, 9.84, 8.3, 3.14, 2.4, 2.17, 2.0, 1.88, 2.53, 2.79, 2.68, 1.49, 0.0, -1.79, -2.12, -1.7, -1.34, -0.45, 0.89, 2.68, 3.98, 4.34, 4.77, 4.77, 9.77, 9.77, 9.48, 9.17, 9.17, 9.48, 9.77, 9.77, 10.36, 10.36, 10.36, 10.36, 10.36, 9.77, 9.17, 9.48, 10.09, 10.4, 10.94, 10.94, 11.23, 11.8, 11.44, 11.72, 12.16, 12.16, 12.54, 11.5, 10.28, 9.48, 9.63, 9.1, 8.96, 8.28, 8.0, 8.0, 8.17, 7.74, 7.4, 6.61, 6.23, 5.34, 4.92, 4.47, 4.02, 4.02, 4.47, 4.89, 4.77, 4.6, 4.11, 3.6, 3.07, 2.4, 1.86, -0.0, -0.0, -0.54, -1.2, -1.9, -1.34, -0.89, -0.95, -0.8, -0.89, -0.0, -0.0, 0.0, 1.24, 2.86, 1.84, 0.61, 0.76, 3.74, 8.94, 9.72, 7.67, 4.46, 2.86, 3.2, 3.53, 2.91, 2.91, 3.7, 4.19, 4.19, 2.8, 0.89, -0.6, -0.6, -0.63, 0.45, 0.45, 2.24, 3.53, 4.43, 4.77, 4.77, 9.77, 9.77, 9.77, 9.44, 9.44, 9.77, 9.77, 9.77, 10.36, 10.36, 10.36, 10.36, 10.36, 9.77, 9.17, 9.77, 10.09, 10.36, 10.36, 11.23, 11.23, 11.52, 11.8, 11.72, 12.16, 12.54, 12.16, 11.5, 10.3, 9.9, 9.48, 9.1, 8.55, 8.68, 8.51, 8.3, 8.06, 8.17, 7.87, 7.51, 7.13, 6.24, 5.81, 5.36, 4.92, 5.36, 5.34, 5.7, 5.26, 5.24, 4.77, 3.87, 3.39, 2.91, 2.4, 1.86, 1.26, -0.0, -0.0, -0.57, -1.2, 0.45, 1.34, -0.89, -1.2, -0.57, -0.6, 0.0, 1.26, 2.23, 1.26, 0.0, 0.0, 2.79, 6.36, 7.12, 3.39, 1.24, 2.0, 3.53, 4.92, 4.92, 4.92, 5.32, 6.16, 6.51, 5.57, 3.09, 0.63, -0.0, 0.0, 0.0, 0.63, 2.17, 3.58, 3.98, 4.44, 4.44, 9.44, 9.44, 9.77, 9.77, 9.77, 9.77, 9.77, 9.77, 10.36, 10.36, 10.36, 10.36, 10.09, 9.77, 9.17, 9.77, 10.09, 10.36, 10.65, 10.65, 10.94, 11.52, 11.52, 11.8, 11.9, 12.16, 12.16, 11.5, 11.34, 10.58, 9.76, 8.72, 7.9, 8.15, 8.0, 8.3, 8.48, 8.21, 8.33, 7.87, 7.52, 7.13, 6.26, 5.81, 5.81, 5.79, 5.79, 5.79, 5.78, 5.33, 4.88, 4.44, 3.98, 3.09, 2.63, 2.17, 2.12, 1.7, 0.6, -0.0, 0.89, 0.89, 0.45, 0.45, -0.63, -1.26, -1.26, -0.8, 0.45, 0.0, -0.63, 0.45, 0.71, 3.9, 6.68, 5.86, 3.13, 2.4, 3.32, 5.64, 7.12, 7.15, 7.15, 7.57, 7.94, 7.07, 6.16, 3.58, 1.2, -0.0, 0.0, 0.0, 0.8, 1.9, 3.07, 4.02, 4.47, 4.47, 9.44, 9.44, 9.44, 9.77, 9.77, 9.77, 9.77, 9.77, 10.02, 10.36, 10.36, 10.36, 9.77, 9.77, 10.06, 9.77, 9.77, 10.3, 10.3, 10.65, 10.94, 11.28, 11.52, 11.8, 11.72, 11.62, 11.78, 11.88, 11.5, 10.96, 10.3, 9.35, 8.28, 7.76, 8.0, 8.22, 7.81, 8.0, 8.17, 8.3, 7.87, 7.07, 6.68, 6.26, 6.26, 6.26, 6.26, 6.26, 5.81, 5.36, 4.92, 4.47, 4.02, 3.58, 3.13, 2.63, 2.6, 2.17, 1.7, 0.95, -0.0, -0.0, -0.0, 0.89, 0.89, -1.34, -1.34, -1.34, -0.89, -1.2, -0.95, 0.0, 2.21, 6.7, 8.67, 7.98, 7.12, 7.28, 8.24, 8.91, 8.49, 7.57, 7.48, 7.33, 7.48, 6.17, 4.92, 3.13, 1.7, 0.63, 0.45, 0.0, 0.57, 1.61, 2.53, 3.14, 4.43, 4.43, 9.72, 9.72, 9.72, 9.44, 10.06, 10.06, 10.06, 10.06, 10.3, 10.65, 10.36, 10.36, 10.06, 10.06, 10.06, 9.77, 10.06, 10.06, 10.3, 10.3, 10.88, 11.23, 11.44, 11.8, 11.44, 11.62, 11.88, 11.88, 11.5, 11.22, 10.55, 9.88, 9.2, 8.28, 8.0, 8.22, 7.81, 8.0, 8.0, 7.74, 7.4, 6.94, 6.61, 6.23, 6.26, 6.71, 6.71, 6.26, 5.81, 5.36, 4.92, 4.47, 4.47, 4.02, 3.58, 3.13, 2.68, 2.68, 2.24, 1.2, 0.63, -0.0, -0.0, 0.45, 0.0, 0.89, -0.45, -0.89, -0.89, -0.89, -0.95, 0.0, 2.23, 6.55, 9.72, 8.46, 8.01, 9.33, 10.32, 10.71, 9.39, 7.01, 5.2, 4.73, 4.87, 4.47, 4.47, 3.98, 3.39, 1.86, 0.45, 0.0, 0.57, 1.2, 1.88, 2.53, 4.0, 4.0, 9.72, 9.72, 9.72, 9.72, 9.72, 10.06, 10.06, 10.06, 10.06, 10.3, 10.3, 10.3, 10.06, 10.06, 10.06, 9.77, 10.06, 9.72, 10.06, 10.3, 10.65, 11.23, 11.23, 11.44, 11.44, 11.35, 11.5, 11.5, 11.75, 11.36, 10.68, 9.63, 9.35, 9.2, 9.01, 8.51, 8.3, 8.48, 8.0, 7.74, 7.26, 6.94, 6.16, 4.92, 5.81, 6.71, 6.68, 6.23, 5.79, 5.34, 4.89, 4.92, 4.47, 4.02, 3.58, 3.58, 3.13, 2.68, 2.24, 1.79, 1.34, 0.89, 0.89, 0.0, 0.0, 0.89, -0.63, -1.2, -1.2, -0.89, -0.89, -1.2, 0.45, 4.02, 8.94, 8.46, 6.55, 8.19, 10.93, 10.98, 9.15, 6.22, 4.43, 3.98, 4.02, 4.47, 4.43, 4.3, 4.3, 3.39, 1.79, 0.0, 0.0, 0.6, 1.2, 1.7, 2.24, 3.07, 9.46, 9.46, 9.72, 9.72, 9.72, 10.06, 10.06, 10.06, 10.06, 10.3, 10.3, 10.3, 10.06, 10.06, 10.06, 9.77, 10.09, 9.72, 10.01, 10.59, 10.65, 10.88, 10.88, 10.88, 11.16, 11.16, 11.34, 11.5, 11.5, 11.36, 11.08, 10.16, 9.88, 8.96, 9.2, 9.01, 8.79, 8.72, 8.48, 7.74, 7.26, 6.94, 6.04, 4.85, 6.26, 7.15, 7.06, 6.47, 5.7, 5.24, 4.89, 4.88, 4.44, 4.02, 4.02, 3.58, 3.58, 3.13, 2.24, 1.79, 1.34, 0.89, 0.45, 0.0, 0.0, 0.45, -1.79, -1.34, -0.89, -0.45, -0.45, -0.89, 0.0, 3.58, 8.01, 8.01, 4.73, 7.07, 9.78, 10.8, 8.76, 5.67, 5.32, 4.92, 4.02, 3.98, 4.73, 4.73, 4.77, 4.43, 3.13, 1.34, 0.0, -0.0, -0.0, 0.65, 1.16, 2.24, 9.46, 9.46, 9.72, 9.72, 9.72, 9.72, 10.06, 10.06, 10.06, 10.06, 10.06, 10.06, 10.06, 10.06, 10.06, 9.77, 10.09, 10.06, 10.01, 10.01, 10.3, 10.65, 10.88, 10.8, 10.8, 10.8, 11.07, 10.96, 11.36, 11.75, 11.6, 10.68, 10.0, 9.48, 9.2, 9.2, 9.01, 8.79, 8.48, 8.0, 7.74, 7.26, 6.47, 5.57, 5.31, 7.51, 7.4, 5.99, 5.09, 4.77, 4.44, 4.44, 4.44, 3.98, 4.02, 3.58, 3.58, 3.07, 2.6, 2.17, 1.79, 0.89, 0.89, 0.89, 0.45, 0.45, -0.89, -1.34, -1.34, -0.45, 0.45, -0.89, 0.0, 1.7, 4.38, 8.14, 6.79, 4.87, 7.2, 7.54, 6.13, 4.73, 4.88, 4.92, 4.3, 4.73, 6.11, 6.11, 5.32, 5.78, 3.58, 0.6, -0.54, -0.0, -0.0, 0.7, 2.07, 1.16, 9.46, 9.46, 9.72, 9.72, 9.72, 9.72, 9.72, 10.06, 10.06, 10.06, 10.06, 10.06, 10.06, 10.06, 10.06, 10.3, 10.09, 10.06, 9.66, 9.66, 10.23, 10.3, 10.65, 10.59, 10.51, 10.51, 10.7, 10.96, 10.83, 11.22, 11.6, 11.08, 10.8, 9.88, 9.71, 9.2, 9.01, 8.72, 8.72, 8.48, 8.0, 7.74, 6.79, 6.3, 6.51, 6.79, 6.51, 5.09, 4.3, 3.98, 3.98, 3.98, 3.98, 3.54, 3.58, 3.58, 3.53, 3.07, 2.63, 2.6, 1.7, 1.2, 1.34, 1.34, 1.34, 1.34, 0.0, 1.34, -0.89, -0.45, 0.45, -0.63, -0.6, 0.0, 1.6, 3.83, 6.07, 5.16, 4.47, 3.97, 3.09, 3.13, 4.43, 6.55, 6.58, 6.67, 6.26, 6.26, 7.15, 5.81, 2.91, -0.61, -0.61, -0.0, 0.65, 1.61, 2.5, 2.5, 9.46, 9.46, 9.46, 9.72, 9.72, 9.72, 9.72, 9.72, 9.72, 9.72, 10.06, 10.06, 10.06, 10.06, 10.06, 10.3, 10.02, 10.06, 9.66, 9.94, 9.66, 10.59, 10.59, 10.59, 10.51, 10.15, 10.41, 10.41, 10.83, 10.83, 11.08, 11.08, 10.68, 10.4, 10.0, 9.71, 8.8, 8.51, 8.72, 8.3, 8.48, 8.0, 7.51, 7.01, 7.09, 7.09, 6.51, 5.26, 4.88, 4.44, 4.02, 4.02, 3.58, 3.58, 3.58, 3.13, 3.07, 3.07, 2.91, 2.4, 1.86, 1.6, 1.2, 1.79, 1.34, 1.34, 1.34, 0.89, -0.0, -0.45, -0.32, -0.6, -0.95, 0.0, 0.63, 2.24, 4.47, 6.11, 6.55, 5.16, 4.52, 5.31, 7.84, 9.4, 8.71, 8.01, 5.81, 5.78, 5.78, 4.02, 1.0, -0.61, -0.0, 0.6, 1.7, 2.24, 2.24, 2.24, 9.13, 9.13, 9.46, 9.72, 9.72, 9.72, 9.72, 9.72, 9.72, 9.72, 9.72, 9.72, 10.06, 10.06, 10.06, 10.3, 10.3, 9.77, 10.01, 9.94, 9.94, 10.23, 10.59, 10.23, 10.51, 10.15, 10.41, 10.41, 10.68, 10.83, 11.08, 10.68, 10.68, 10.91, 10.4, 10.21, 9.3, 9.01, 8.51, 8.72, 8.3, 8.42, 8.0, 7.51, 7.09, 7.26, 6.94, 6.61, 6.23, 5.34, 4.92, 4.47, 4.02, 4.02, 3.58, 3.13, 3.13, 3.07, 2.91, 2.4, 2.4, 1.86, 1.26, 1.58, 1.79, 1.79, -0.0, -0.0, -0.0, -0.45, -0.63, -0.6, -0.6, 0.0, 0.8, 1.9, 3.97, 7.15, 9.58, 9.6, 9.66, 10.81, 11.85, 11.3, 10.08, 8.02, 5.36, 4.47, 3.98, 2.12, -0.0, -0.0, 0.45, 1.2, 1.7, 2.12, 2.12, 2.12, 9.13, 9.13, 9.13, 9.46, 9.72, 9.72, 9.72, 9.72, 9.72, 9.72, 9.72, 9.72, 9.72, 10.06, 10.06, 10.3, 10.06, 10.06, 9.72, 9.94, 9.94, 9.94, 10.23, 10.23, 10.51, 10.15, 10.41, 10.41, 10.68, 10.83, 10.83, 10.68, 10.55, 10.4, 10.21, 10.21, 9.71, 9.01, 8.51, 8.51, 8.3, 8.3, 7.81, 7.51, 7.09, 6.79, 6.79, 6.94, 6.61, 6.16, 5.78, 5.33, 4.92, 4.47, 4.02, 3.13, 3.13, 2.63, 2.63, 2.4, 2.4, 1.9, 1.58, 1.86, 2.24, 1.79, -0.0, -0.0, 0.45, -0.95, -0.6, -0.6, 0.0, 0.0, 1.2, 1.2, 2.68, 5.36, 9.11, 9.9, 10.86, 12.08, 13.05, 11.8, 9.89, 7.76, 6.58, 4.43, 2.24, 0.45, 0.0, 0.0, 0.0, 0.0, 0.8, 1.26, 1.26, 1.26, 9.13, 9.13, 9.13, 9.13, 9.72, 9.72, 9.72, 9.72, 9.72, 9.72, 9.72, 9.72, 9.72, 9.72, 10.01, 10.01, 10.01, 9.72, 9.42, 9.42, 9.94, 9.94, 10.23, 10.23, 10.51, 10.15, 10.15, 10.41, 10.41, 10.68, 10.83, 11.08, 10.68, 10.8, 10.4, 10.21, 9.71, 9.42, 9.01, 8.51, 8.51, 8.22, 7.81, 7.51, 7.09, 7.01, 6.79, 6.79, 6.94, 6.6, 6.16, 5.7, 5.34, 4.89, 4.44, 3.58, 3.09, 3.07, 2.63, 2.4, 2.15, 1.9, 1.9, 1.58, 1.7, 1.79, 1.34, 0.0, -0.45, -0.6, -0.54, 0.0, 0.0, 0.0, 0.45, -0.0, 1.7, 3.53, 6.0, 6.01, 7.52, 11.18, 13.35, 11.8, 9.68, 7.56, 6.58, 3.97, 0.8, 0.45, -0.8, -1.24, -0.57, -0.57, 0.0, 0.6, 0.6, 0.6, 9.13, 9.13, 9.13, 9.13, 9.39, 9.72, 9.72, 9.72, 9.72, 9.72, 10.01, 10.01, 9.72, 9.72, 9.66, 9.42, 9.37, 9.08, 9.08, 9.08, 9.94, 10.01, 10.23, 10.23, 10.51, 10.15, 10.15, 10.41, 10.41, 10.41, 10.68, 10.83, 11.08, 10.68, 10.8, 10.4, 10.21, 9.92, 9.42, 9.01, 8.51, 8.1, 8.22, 7.71, 7.51, 7.01, 7.01, 6.79, 6.79, 6.51, 6.47, 6.04, 5.7, 5.24, 4.44, 3.98, 3.53, 3.09, 3.07, 2.4, 2.4, 2.15, 1.9, 1.9, 1.49, 1.79, 1.79, 1.34, 1.34, 0.0, 0.0, 0.0, 0.0, 0.0, -0.0, -0.0, 0.6, 2.5, 3.48, 2.88, 4.56, 9.3, 12.54, 11.85, 9.7, 7.84, 4.43, 2.17, 0.45, -1.24, -1.9, -1.9, -1.86, -0.95, 0.0, 0.63, 0.63, 0.63, 9.13, 9.13, 9.13, 9.13, 9.42, 10.01, 9.72, 9.72, 10.01, 10.01, 10.01, 10.01, 10.01, 9.66, 9.66, 9.37, 9.37, 9.37, 9.37, 9.37, 9.37, 10.01, 10.01, 10.23, 10.51, 10.15, 10.15, 10.41, 10.41, 10.41, 10.68, 10.68, 10.83, 10.55, 10.55, 10.16, 10.4, 10.21, 9.92, 9.51, 9.01, 8.51, 8.22, 7.81, 7.31, 7.51, 7.01, 7.01, 6.79, 6.79, 6.47, 6.04, 5.57, 5.57, 4.8, 4.34, 3.87, 3.39, 2.91, 2.49, 2.4, 2.15, 1.9, 1.9, 1.24, 1.26, 1.79, 1.79, 0.89, 0.0, 0.0, 0.0, -0.45, -0.45, -0.63, -0.4, -0.0, 0.65, 1.8, 2.0, 3.07, 7.07, 9.92, 10.47, 9.82, 7.85, 3.39, 0.32, -0.89, -1.2, -1.86, -2.0, -1.7, -0.63, 0.45, 0.45, 0.45, 0.45, 9.13, 9.13, 9.42, 9.42, 9.42, 9.66, 10.01, 10.01, 10.01, 10.01, 10.01, 10.01, 9.66, 9.08, 9.37, 9.37, 9.37, 9.37, 9.37, 9.37, 9.37, 9.66, 10.01, 10.01, 10.3, 9.94, 10.15, 10.15, 10.41, 10.41, 10.41, 10.68, 10.68, 10.3, 10.55, 10.16, 10.4, 9.88, 10.11, 9.71, 9.42, 9.01, 8.51, 8.22, 7.71, 7.31, 7.51, 7.01, 7.21, 6.79, 6.36, 6.47, 5.99, 5.57, 5.09, 4.6, 4.19, 3.7, 3.39, 2.91, 2.4, 2.15, 1.61, 1.61, 1.2, 0.6, 0.4, 0.63, 0.0, 0.45, -0.0, 0.45, -0.45, -0.89, -0.89, -0.63, -0.6, -0.0, 0.61, 1.8, 2.51, 3.79, 6.01, 8.3, 9.14, 8.25, 0.8, -0.4, -0.0, -0.0, 0.0, -1.2, -0.89, -0.45, 0.0, 0.0, 0.0, 0.0, 9.08, 8.82, 9.08, 9.42, 9.42, 9.66, 9.66, 10.01, 10.01, 10.01, 10.01, 10.01, 9.66, 9.37, 9.37, 9.37, 9.37, 9.37, 9.37, 9.37, 9.42, 9.66, 9.66, 9.66, 9.94, 9.94, 9.94, 9.94, 10.41, 10.41, 10.41, 10.41, 10.68, 10.3, 10.55, 10.16, 9.63, 9.88, 9.88, 9.71, 9.3, 9.42, 8.91, 8.51, 8.22, 7.71, 7.31, 7.09, 7.01, 6.79, 6.79, 6.3, 5.88, 5.4, 5.31, 4.9, 4.4, 4.11, 3.6, 2.68, 2.5, 2.15, 1.61, 1.88, 1.2, 0.8, 0.0, 0.0, -0.89, -0.89, -0.45, -0.0, 0.63, -0.89, -1.34, -1.34, -0.95, -0.57, -0.0, 1.2, 2.53, 2.51, 2.79, 5.69, 8.91, 5.33, 1.79, 0.45, -0.0, 0.63, 1.34, 0.63, 0.0, -0.45, -0.32, -0.0, -0.0, -0.0, 8.82, 8.82, 9.08, 9.08, 9.42, 9.42, 9.66, 9.66, 10.01, 10.01, 10.01, 9.66, 9.08, 9.37, 9.37, 9.37, 9.08, 9.42, 9.42, 9.66, 9.66, 9.66, 9.66, 9.94, 9.94, 9.94, 9.94, 9.94, 9.94, 9.94, 10.41, 10.41, 10.04, 10.3, 10.3, 10.02, 9.63, 9.63, 9.48, 9.48, 9.6, 9.2, 9.01, 8.51, 8.1, 8.22, 7.71, 7.31, 7.09, 7.01, 6.79, 6.3, 6.3, 5.81, 5.31, 5.31, 4.8, 4.27, 3.72, 3.07, 2.68, 2.5, 1.88, 1.88, 1.2, 0.99, 0.0, -0.57, -1.58, -1.86, -1.7, 0.45, 0.89, 1.34, -0.45, -0.89, -1.2, -0.8, -0.57, -0.0, 1.2, 2.21, 2.53, 4.73, 10.73, 7.6, 2.24, 0.0, 0.0, 0.63, 1.7, 1.7, 0.45, -0.45, -0.63, -0.0, -0.0, -0.0, 8.82, 8.82, 8.82, 9.08, 9.08, 9.42, 9.42, 9.66, 9.66, 9.66, 9.42, 9.37, 9.37, 9.37, 9.37, 9.42, 9.66, 9.66, 9.66, 9.66, 9.66, 9.66, 9.66, 9.94, 9.94, 9.94, 9.94, 9.94, 9.94, 9.94, 9.94, 10.23, 10.04, 10.3, 10.13, 10.02, 9.63, 9.63, 9.48, 9.35, 8.96, 9.2, 8.8, 8.91, 8.51, 8.0, 7.81, 7.71, 7.51, 7.01, 6.6, 6.79, 6.3, 5.6, 5.6, 5.08, 4.55, 4.0, 3.88, 3.35, 2.79, 2.5, 2.21, 1.88, 1.0, 0.99, 0.57, 0.0, -1.24, -2.21, -1.88, -0.54, 0.57, 1.26, 0.45, 0.45, -0.45, -0.6, -0.0, -0.0, 0.6, 1.9, 2.68, 9.83, 11.62, 8.49, 2.24, 0.0, 0.0, 0.0, 1.2, 1.58, 0.45, -0.45, -0.63, -0.0, -0.0, -0.0, 8.82, 8.82, 8.82, 9.08, 9.08, 9.42, 9.42, 9.66, 9.42, 9.37, 9.37, 9.37, 9.37, 9.37, 9.42, 9.66, 9.66, 9.66, 9.66, 9.66, 9.66, 9.66, 9.66, 9.94, 9.94, 9.94, 9.94, 9.94, 9.94, 9.94, 9.94, 9.94, 9.86, 9.86, 9.76, 9.76, 9.63, 9.63, 9.48, 9.35, 8.96, 9.2, 8.68, 8.68, 8.51, 8.0, 8.0, 7.81, 7.31, 7.09, 7.01, 6.6, 6.1, 6.0, 5.6, 5.08, 4.55, 4.37, 4.0, 3.43, 3.14, 2.53, 2.21, 1.88, 1.24, 0.99, 0.99, 1.26, 0.63, 0.0, -0.65, -0.61, 0.0, 0.0, 0.57, 0.0, 0.45, 0.45, -0.0, -0.0, -0.0, 0.95, 4.73, 8.82, 10.63, 7.48, 2.24, 0.0, 0.0, 0.0, 0.51, 1.2, 0.0, -0.45, -0.4, -0.6, -0.6, -0.6, 8.5, 8.5, 8.82, 8.82, 9.08, 9.08, 9.42, 9.08, 9.37, 9.37, 9.37, 9.37, 9.37, 9.37, 9.42, 9.66, 9.42, 9.42, 9.42, 9.42, 9.42, 9.66, 9.66, 9.66, 9.94, 9.94, 9.94, 9.94, 9.94, 9.94, 9.94, 9.94, 9.86, 9.86, 9.76, 9.76, 9.48, 9.48, 9.1, 9.35, 9.35, 8.96, 8.68, 8.68, 8.28, 8.0, 8.0, 7.71, 7.31, 7.31, 7.01, 6.6, 6.1, 6.0, 5.37, 5.21, 4.65, 4.07, 4.0, 3.43, 2.84, 2.79, 2.53, 2.21, 1.61, 0.99, 1.26, 1.2, 0.89, 0.89, 0.6, 0.0, -0.61, -0.61, 0.0, 0.0, -0.63, 0.0, 0.0, 0.0, 0.0, 0.45, 3.39, 5.86, 8.19, 5.2, 2.12, -0.6, -0.53, -0.59, 0.0, 0.0, 0.0, -0.0, -0.0, -0.61, -0.61, -0.61, 8.5, 8.5, 8.5, 8.82, 8.82, 9.37, 9.37, 9.37, 9.02, 9.37, 9.37, 9.37, 9.59, 9.66, 9.66, 9.42, 9.42, 9.42, 9.42, 9.42, 9.42, 9.42, 9.66, 9.66, 9.66, 9.94, 9.94, 9.94, 9.94, 9.94, 9.94, 9.59, 9.86, 9.3, 9.3, 9.21, 9.21, 9.1, 9.1, 9.1, 9.35, 8.96, 8.68, 8.68, 8.15, 8.0, 8.0, 7.48, 7.31, 7.31, 6.8, 6.8, 5.89, 5.75, 5.37, 5.21, 4.65, 4.07, 3.73, 3.48, 3.43, 2.84, 2.53, 2.21, 1.88, 1.24, 1.26, 0.63, 0.89, 0.63, 0.89, 0.0, -0.54, -1.16, -0.54, 0.0, 0.0, 0.0, 0.0, 0.0, 0.0, 0.89, 2.68, 3.82, 5.64, 4.87, 2.24, 0.0, -0.8, -1.0, -1.2, 0.0, 0.45, 0.6, -0.0, -0.59, -0.59, -0.59, 8.19, 8.19, 8.5, 8.5, 8.5, 8.78, 8.78, 9.02, 9.37, 9.37, 9.37, 9.94, 9.66, 9.66, 9.66, 9.42, 9.42, 9.42, 9.42, 9.42, 9.42, 9.42, 9.42, 9.66, 9.66, 9.66, 9.94, 9.94, 9.59, 9.59, 9.59, 9.59, 9.86, 9.3, 9.3, 9.21, 9.21, 9.1, 9.1, 9.1, 8.96, 8.96, 8.82, 8.68, 8.15, 7.76, 7.48, 7.48, 7.08, 7.31, 6.8, 6.28, 5.89, 5.75, 5.21, 5.21, 4.65, 4.07, 4.07, 3.48, 3.16, 2.84, 2.53, 2.53, 1.88, 1.61, 1.24, 0.6, 0.6, 0.0, 0.0, 0.0, -1.49, -2.53, -1.9, 0.0, 0.0, 0.0, 0.0, 0.0, 0.0, 0.63, 1.7, 3.58, 4.92, 5.81, 4.02, 2.17, 1.2, 0.63, 0.0, 0.0, 0.8, 1.58, 0.59, -0.0, -0.0, -0.0, 7.86, 7.86, 8.19, 8.78, 8.78, 8.45, 8.78, 9.02, 9.37, 9.37, 9.71, 9.66, 9.66, 9.66, 9.66, 9.42, 9.42, 9.42, 9.42, 9.42, 9.42, 9.42, 9.42, 9.42, 9.42, 9.66, 9.94, 9.59, 9.59, 9.59, 9.59, 9.86, 9.3, 9.3, 8.94, 8.94, 9.21, 8.65, 8.93, 8.55, 8.55, 8.82, 8.82, 8.43, 8.28, 7.76, 7.87, 7.48, 7.08, 7.08, 7.2, 6.28, 6.28, 5.75, 5.21, 5.21, 4.65, 4.41, 4.07, 3.48, 3.48, 3.16, 2.84, 2.23, 2.23, 1.88, 1.2, 0.57, 0.0, 0.0, 0.0, -0.6, -1.9, -2.53, -1.61, 0.0, 0.54, 0.71, 0.0, 0.0, 0.0, 0.0, 1.58, 3.32, 5.32, 7.6, 5.81, 3.98, 3.32, 2.91, 2.17, 0.89, 0.8, 1.61, 1.13, -0.0, -0.0, -0.0, 7.86, 7.86, 7.86, 8.19, 8.45, 8.45, 8.78, 9.02, 9.37, 9.37, 9.42, 9.66, 9.66, 9.66, 9.42, 9.42, 9.42, 9.42, 9.42, 9.42, 9.42, 9.42, 9.42, 9.42, 9.42, 9.42, 9.37, 9.37, 9.37, 9.37, 9.37, 9.3, 9.3, 9.3, 8.94, 9.01, 8.65, 8.65, 8.93, 8.55, 8.55, 8.82, 8.43, 8.43, 8.28, 8.15, 7.76, 7.48, 7.48, 7.08, 6.95, 6.41, 6.03, 5.75, 5.58, 5.21, 4.65, 4.41, 4.07, 3.48, 3.48, 2.86, 2.84, 2.51, 2.23, 1.84, 1.88, 1.0, 0.71, 0.54, 0.54, 0.0, -0.63, -0.8, -0.65, 0.0, 0.0, 0.0, 0.0, 0.0, 0.0, 0.0, 1.9, 3.07, 5.64, 7.57, 7.15, 4.88, 4.3, 4.3, 3.82, 2.6, 1.7, 1.88, 1.8, 0.66, 0.66, 0.66, 7.86, 7.86, 7.86, 7.86, 8.19, 8.45, 8.78, 9.02, 9.08, 9.08, 9.42, 9.42, 9.42, 9.42, 9.42, 9.42, 9.42, 9.42, 9.42, 9.42, 9.42, 9.42, 9.08, 9.08, 9.08, 9.37, 9.37, 9.37, 9.37, 9.37, 9.02, 9.3, 9.3, 9.21, 9.21, 8.65, 8.65, 8.65, 8.93, 8.55, 8.55, 8.82, 8.43, 8.43, 8.27, 8.15, 7.76, 7.87, 7.48, 7.48, 6.95, 6.41, 6.03, 5.86, 5.29, 4.94, 4.37, 4.11, 3.79, 3.49, 3.48, 2.86, 2.86, 2.51, 2.23, 2.23, 1.61, 1.2, 1.0, 1.2, 1.24, 0.63, 0.45, 1.34, 0.0, 0.0, -0.53, -0.45, 0.0, 0.0, 0.0, 0.71, 1.88, 3.14, 4.93, 7.12, 7.6, 5.81, 4.92, 4.88, 4.3, 3.53, 2.91, 2.51, 2.73, 2.0, 2.0, 2.0, 7.86, 7.86, 7.86, 7.86, 8.19, 8.45, 8.78, 8.78, 9.08, 9.42, 9.42, 9.42, 9.42, 9.42, 9.42, 9.42, 9.42, 9.42, 9.42, 9.42, 9.42, 9.08, 9.08, 9.08, 9.37, 9.37, 9.37, 9.37, 9.37, 9.02, 9.3, 9.3, 8.94, 9.21, 8.84, 8.65, 8.65, 8.65, 8.29, 8.55, 8.55, 8.55, 8.43, 8.27, 7.9, 8.15, 7.76, 7.76, 7.23, 7.48, 6.95, 6.41, 6.41, 5.86, 5.49, 4.94, 4.71, 4.11, 3.79, 3.49, 3.2, 3.15, 2.86, 2.58, 2.51, 2.51, 1.84, 1.4, 1.2, 1.2, 1.9, 1.7, 1.34, -0.0, 0.0, -0.57, -1.0, -0.89, -0.45, 0.0, 0.0, 0.65, 1.84, 2.51, 4.66, 6.55, 7.15, 6.26, 5.36, 4.92, 4.47, 3.97, 3.6, 3.16, 3.48, 2.79, 2.79, 2.79, 7.86, 7.86, 7.86, 7.86, 8.19, 8.45, 8.78, 8.78, 9.08, 9.42, 9.42, 9.42, 9.42, 9.42, 9.42, 9.42, 9.42, 9.42, 9.42, 9.42, 9.42, 9.08, 9.08, 9.08, 9.37, 9.37, 9.37, 9.37, 9.37, 9.02, 9.3, 9.3, 8.94, 9.21, 8.84, 8.65, 8.65, 8.65, 8.29, 8.55, 8.55, 8.55, 8.43, 8.27, 7.9, 8.15, 7.76, 7.76, 7.23, 7.48, 6.95, 6.41, 6.41, 5.86, 5.49, 4.94, 4.71, 4.11, 3.79, 3.49, 3.2, 3.15, 2.86, 2.58, 2.51, 2.51, 1.84, 1.4, 1.2, 1.2, 1.9, 1.7, 1.34, -0.0, 0.0, -0.57, -1.26, -0.89, -0.45, 0.0, 0.0, 0.61, 1.84, 2.79, 4.12, 5.86, 6.66, 6.71, 6.26, 5.77, 5.2, 4.93, 4.46, 4.46, 3.49, 2.84, 2.84, 2.84]}, {"header": {"dx": 0.06612293990616946, "dy": 0.0552356325346848, "nx": 98, "ny": 59, "la1": 35.046912555036876, "la2": 31.78801023549047, "lo1": -121.43107172385933, "lo2": -114.95102361305473, "refTime": "2026040806", "parameterCategory": 1, "parameterNumber": 3}, "data": [-10.59, -10.59, -11.16, -10.88, -10.88, -10.59, -9.66, -8.78, -7.86, -7.23, -6.28, -4.37, -1.9, -0.63, 0.0, -1.79, -3.82, -4.46, -4.11, -4.11, -3.91, -3.48, -2.51, -2.84, -2.84, -3.07, -3.32, -3.07, -3.07, -2.68, -2.68, -2.17, -1.86, -1.24, -0.65, 0.0, 0.0, -0.59, 0.0, 0.0, -1.49, -3.32, -3.58, -5.37, -6.4, -6.87, -8.36, -8.5, -8.5, -7.71, -5.95, 0.65, 3.97, 4.41, 4.4, 4.84, 4.43, 4.36, 3.55, 3.2, 2.26, 1.52, 1.41, 1.4, 1.88, 2.51, 3.22, 3.0, 3.09, 3.11, 3.16, 2.21, 2.35, 1.55, 1.41, 2.8, 3.69, 3.37, 2.25, 1.54, 0.78, 1.41, 1.33, 1.16, 0.71, 0.71, 0.65, 0.59, 0.0, 0.0, 0.0, 0.0, 0.0, 0.0, 0.0, 0.0, 0.0, 0.0, -10.59, -11.16, -10.94, -10.88, -11.23, -10.88, -10.01, -9.08, -8.45, -7.81, -6.52, -3.79, -1.88, -0.57, 0.0, 0.0, -1.79, -3.45, -4.11, -3.79, -5.37, -5.37, -3.48, -2.41, -2.53, -2.86, -2.5, -2.8, -2.91, -2.91, -3.07, -2.24, -1.79, -0.95, 0.0, 0.0, -0.59, -0.66, -0.66, -0.61, -1.9, -3.74, -6.99, -8.68, -9.9, -10.75, -10.89, -10.89, -9.39, -8.56, -1.27, 3.07, 3.97, 4.0, 4.4, 4.84, 4.81, 4.36, 3.79, 3.69, 2.18, 2.26, 2.2, 2.41, 2.84, 3.07, 3.64, 3.0, 3.09, 3.06, 3.85, 3.16, 2.28, 1.58, 1.52, 2.2, 2.99, 3.37, 2.25, 1.54, 0.78, 1.41, 1.33, 1.16, 0.71, 0.71, 0.65, 0.59, 0.0, 0.0, 0.0, 0.0, 0.0, 0.0, 0.0, 0.0, 0.0, 0.0, -10.65, -10.88, -10.88, -10.88, -10.88, -10.88, -10.59, -9.66, -8.75, -8.15, -6.87, -5.86, -3.14, -1.9, -0.57, 0.0, -0.6, -3.07, -4.09, -5.59, -4.75, -6.01, -6.01, -5.06, -2.84, -1.88, -1.9, -2.5, -2.5, -3.45, -3.07, -2.91, -2.0, -1.34, -0.63, -0.71, -0.59, -1.27, -1.35, -1.94, -3.48, -8.4, -11.44, -13.14, -14.13, -14.11, -13.07, -11.38, -9.8, -3.64, 1.58, 3.74, 3.74, 4.0, 4.52, 5.05, 5.09, 4.36, 4.03, 3.27, 2.31, 2.12, 2.98, 3.79, 3.79, 4.43, 4.29, 4.46, 4.71, 4.28, 4.6, 3.76, 2.25, 1.6, 0.76, 0.7, 0.76, 3.07, 1.36, 0.75, 0.0, 0.72, 0.67, 0.59, 0.57, 1.26, 1.2, 0.59, 0.0, -0.76, 0.0, 0.0, 0.0, 0.0, 0.0, 0.0, 0.0, 0.0, -10.88, -10.88, -10.88, -10.88, -10.88, -10.88, -10.88, -10.01, -9.08, -8.45, -7.44, -6.7, -3.83, -2.5, -1.24, -1.24, -1.2, -2.4, -3.82, -4.46, -4.12, -4.11, -5.69, -6.01, -4.56, -2.41, -1.84, -1.88, -2.5, -3.07, -4.4, -4.84, -4.12, -2.86, -1.79, -1.9, -2.15, -2.76, -4.46, -6.24, -8.6, -12.13, -14.07, -13.14, -12.52, -10.86, -9.17, -7.59, -2.79, 1.2, 3.14, 3.49, 3.45, 4.66, 5.44, 5.43, 4.81, 4.36, 3.69, 2.99, 2.31, 2.35, 3.72, 4.46, 5.09, 5.06, 4.56, 4.87, 5.52, 5.7, 5.51, 3.82, 2.37, 1.36, 0.0, -1.27, -2.2, -1.52, 0.0, 0.0, -0.64, 0.0, 0.0, 0.0, 0.8, 1.26, 1.16, 0.0, -1.41, -1.41, 0.0, 0.59, 0.54, 0.0, 0.0, 1.2, 1.84, 1.27, -10.88, -10.88, -10.88, -10.88, -10.88, -11.23, -10.88, -10.59, -9.66, -9.02, -7.73, -6.03, -2.8, -2.4, -2.15, -1.9, -2.21, -2.53, -3.07, -4.27, -5.69, -3.63, -2.95, -4.22, -4.56, -4.46, -2.76, -2.53, -2.8, -2.91, -3.82, -6.0, -8.3, -8.24, -7.6, -6.88, -6.99, -7.64, -9.62, -11.18, -11.54, -9.92, -7.33, -4.65, -3.79, -3.09, -2.12, -0.7, 0.59, 2.98, 2.98, 3.48, 3.83, 5.16, 5.34, 4.46, 4.01, 3.9, 3.91, 3.06, 2.31, 3.11, 4.11, 5.46, 5.37, 5.3, 4.56, 4.56, 5.21, 6.05, 5.2, 4.71, 4.1, 3.07, 1.45, -1.84, -4.12, -4.6, -3.11, -1.39, -0.63, -0.61, 0.0, 0.0, 0.0, 0.0, -0.59, -1.35, -1.35, -0.59, 1.0, 2.5, 1.86, 0.95, 2.12, 3.32, 3.49, 2.48, -10.65, -10.88, -10.88, -10.88, -10.65, -11.23, -11.23, -11.16, -10.23, -9.37, -8.0, -5.6, -2.0, -1.58, -1.9, -1.9, -2.5, -2.53, -3.45, -4.73, -7.68, -7.68, -6.4, -4.94, -4.22, -5.15, -6.01, -5.58, -4.98, -3.95, -3.13, -3.13, -6.07, -10.25, -12.05, -11.15, -10.49, -10.48, -11.9, -11.53, -9.84, -6.4, -2.23, -0.63, 0.0, 0.0, 0.0, 0.0, 1.45, 1.47, 1.55, 2.07, 2.84, 3.83, 3.83, 3.48, 2.98, 3.11, 3.09, 3.21, 2.31, 2.98, 4.46, 5.43, 4.56, 4.71, 3.69, 3.11, 2.88, 3.6, 3.16, 2.99, 4.65, 4.65, 3.91, 0.69, -3.14, -4.46, -2.29, -0.74, -0.59, -1.88, -2.0, -2.0, -1.84, -2.53, -3.16, -2.48, -1.0, 0.0, 1.34, 2.4, 2.4, 3.13, 4.02, 4.3, 4.09, 3.48, -10.3, -10.65, -10.65, -10.88, -10.65, -11.23, -11.44, -10.88, -10.59, -9.37, -7.9, -5.08, -1.86, -0.57, -1.27, -1.24, -1.88, -3.84, -5.43, -4.3, -5.02, -8.94, -10.9, -10.92, -9.88, -9.3, -10.8, -10.38, -9.33, -6.28, -3.04, -2.24, -2.6, -4.47, -10.28, -11.62, -12.05, -11.39, -9.53, -7.67, -7.31, -6.17, -6.36, -5.37, -5.21, -3.78, -2.21, -0.74, 0.0, 0.0, 0.0, 0.7, 2.53, 3.45, 2.84, 2.79, 2.98, 2.88, 2.26, 2.23, 2.4, 2.98, 2.98, 2.88, 2.88, 3.2, 3.09, 1.6, 0.73, 0.0, 0.0, 0.78, 0.72, 1.48, 1.48, 1.52, 0.0, -1.0, -0.54, 0.0, -0.57, -3.16, -5.09, -5.09, -4.46, -5.86, -5.69, -3.07, -1.34, -0.63, -0.0, 1.34, 3.58, 4.92, 4.88, 4.52, 4.09, 3.48, -10.3, -10.3, -10.65, -10.88, -10.88, -11.23, -11.44, -10.88, -10.59, -9.5, -7.61, -5.81, -2.8, -1.61, -1.99, -1.2, -1.33, -3.64, -4.29, -2.88, -1.16, -2.5, -4.73, -12.13, -13.14, -12.17, -12.79, -12.21, -10.16, -7.64, -6.0, -3.95, -3.95, -5.51, -8.24, -11.15, -12.05, -10.49, -7.64, -7.37, -6.0, -8.24, -11.88, -13.15, -11.77, -9.67, -5.21, -3.06, -1.52, -1.11, -0.63, 0.0, 2.53, 3.84, 3.79, 4.11, 4.01, 3.55, 3.09, 2.99, 3.09, 2.29, 1.41, 1.41, 1.33, 2.0, 1.55, 0.0, -0.66, -0.7, 0.0, 0.0, -0.78, -2.34, -1.48, -0.68, 1.47, 2.04, 1.47, 0.74, 0.0, -4.29, -6.32, -6.9, -7.73, -7.56, -5.02, -3.13, -1.86, -1.86, -0.0, 2.4, 3.87, 4.92, 4.88, 4.27, 3.78, 3.16, -10.65, -10.88, -10.88, -11.23, -11.23, -11.8, -11.44, -10.88, -10.51, -9.76, -8.15, -7.31, -7.31, -7.21, -5.43, -3.07, -2.98, -3.9, -2.88, -1.49, 0.0, -0.7, -0.73, -3.97, -9.74, -10.16, -8.8, -9.67, -9.36, -9.38, -10.28, -11.57, -11.62, -10.52, -9.11, -9.11, -10.23, -10.68, -9.11, -9.21, -9.75, -10.7, -12.18, -11.34, -10.7, -10.49, -10.18, -7.47, -5.13, -4.0, -3.35, 0.0, 2.84, 4.12, 4.43, 4.36, 4.29, 3.91, 3.15, 3.15, 2.31, 1.45, 0.81, 0.76, 1.49, 1.49, 0.76, 0.0, 0.0, 0.0, 0.0, -0.67, -1.52, -2.71, -2.02, -0.77, 0.0, 1.44, 1.56, 1.36, 0.78, -1.98, -4.37, -6.13, -7.33, -6.14, -4.02, -2.6, -2.15, -1.24, 1.58, 3.35, 3.88, 3.98, 3.98, 3.72, 2.86, 2.48, -11.23, -11.23, -10.94, -11.52, -11.8, -11.8, -11.8, -11.16, -10.51, -9.76, -9.1, -8.96, -9.71, -11.56, -10.89, -9.33, -8.95, -9.03, -8.4, -7.4, -6.64, -6.45, -4.89, -3.16, -4.47, -7.28, -6.52, -8.58, -10.62, -11.21, -12.02, -13.86, -13.86, -12.07, -9.83, -7.08, -5.58, -5.6, -7.81, -8.91, -10.02, -9.83, -3.6, -1.2, -2.24, -4.87, -8.36, -9.4, -8.88, -6.32, -1.84, 1.2, 3.14, 4.46, 4.74, 4.56, 3.91, 3.15, 2.23, 1.52, 1.52, 0.76, 0.0, 0.65, 1.49, 1.33, 0.79, 1.28, 0.59, 0.0, 0.0, -0.72, -1.39, -2.06, -1.36, -0.71, -1.4, -1.49, -1.33, -0.68, 0.0, 0.0, -1.8, -4.52, -5.2, -4.27, -2.21, -1.2, -1.2, -0.0, 2.4, 3.6, 3.14, 2.68, 2.63, 2.23, 1.8, 1.8, -10.94, -10.94, -11.28, -11.52, -11.8, -11.8, -11.44, -11.16, -10.51, -10.13, -9.76, -10.04, -10.23, -10.16, -10.68, -11.4, -12.3, -12.35, -12.04, -12.18, -12.49, -11.62, -10.25, -6.0, -4.02, -4.22, -7.47, -7.87, -10.73, -13.01, -13.41, -12.94, -11.62, -11.06, -10.62, -9.83, -8.8, -7.64, -4.27, -3.39, -2.68, -1.7, 2.4, 3.39, 0.8, -0.0, -2.6, -3.58, -3.58, -2.68, -0.45, 1.2, 1.88, 3.07, 3.64, 3.69, 3.15, 1.52, 0.77, 0.0, 0.0, 0.0, 0.7, 1.24, 1.24, 1.33, 2.12, 2.26, 1.41, 0.0, -0.76, -2.02, -2.02, -2.06, -1.36, -1.36, -2.76, -2.99, -3.7, -4.01, -2.76, -1.38, 0.0, -2.0, -3.48, -2.88, -1.32, 0.0, 0.0, 0.0, 1.2, 2.4, 3.07, 2.4, 1.7, 1.2, 1.16, 1.0, -10.94, -10.94, -10.94, -11.8, -11.8, -11.8, -11.23, -10.8, -10.41, -10.04, -10.41, -10.51, -10.51, -9.94, -7.81, -8.43, -8.51, -10.71, -12.3, -12.08, -9.14, -6.24, -5.36, -3.9, -2.23, -1.6, -2.6, -1.9, -2.5, -5.29, -8.49, -4.43, -2.68, -5.2, -9.83, -10.28, -9.89, -4.66, -1.7, -0.0, 1.9, 2.5, 2.91, 2.0, 0.8, 0.61, -0.0, -0.65, -0.0, -0.65, -1.26, -0.89, 0.0, 0.61, 1.41, 1.52, 1.58, 1.44, 0.0, -0.72, 0.0, 0.7, 1.24, 0.63, 0.6, 1.16, 2.8, 3.6, 2.4, 0.0, -0.73, -2.06, -2.76, -2.31, -2.21, -3.07, -3.16, -3.88, -5.39, -6.29, -5.41, -2.97, -0.75, 0.0, -0.67, -0.69, -0.69, -0.7, -0.67, 0.0, 0.0, 0.89, 2.0, 2.12, 1.2, 0.71, 0.0, 0.57, -10.94, -10.94, -10.94, -11.23, -11.23, -11.23, -10.88, -10.59, -10.51, -10.41, -10.51, -10.23, -10.59, -10.3, -8.56, -7.32, -6.34, -6.52, -7.76, -8.68, -6.56, -3.73, -2.53, -1.95, -1.58, -0.5, 0.0, 0.99, 1.79, -0.0, -0.6, 0.63, 2.17, 0.0, -2.24, -2.68, -3.13, -0.89, 0.6, -0.0, -0.0, -1.24, -1.26, -0.63, -1.26, -1.88, -2.41, -2.41, -2.15, -2.21, -3.2, -3.53, -3.13, -2.68, -1.6, -1.66, 0.0, 0.96, 0.59, 0.0, 0.63, 1.7, 1.34, -0.0, -0.89, 0.0, 1.61, 2.98, 2.98, 1.41, 0.73, 0.0, -1.52, -2.26, -3.06, -4.01, -4.58, -5.41, -5.62, -5.46, -3.97, -3.64, -3.93, -3.76, 0.0, 0.0, -0.76, -2.02, -1.29, -0.64, 0.0, 0.57, 1.34, 0.89, 0.63, 0.0, 0.0, 0.0, -10.94, -10.94, -10.94, -11.23, -11.23, -10.88, -11.16, -10.23, -10.51, -10.51, -10.23, -10.59, -10.88, -10.88, -10.69, -8.87, -6.97, -5.08, -5.1, -5.37, -5.41, -3.83, -2.77, -2.16, -2.16, -2.16, -1.55, -0.54, 0.8, 2.5, 1.9, 1.86, 1.6, 1.34, 1.79, 1.79, 1.79, 1.79, -0.0, -1.26, -3.07, -4.73, -5.73, -4.02, -1.34, -2.97, -4.4, -7.4, -7.95, -7.74, -6.88, -7.98, -9.39, -9.77, -8.24, -5.44, -2.5, 0.0, 0.65, 0.45, 0.57, 1.58, 1.26, -0.0, -1.9, -1.7, 0.0, 0.57, 1.0, 2.21, 3.07, 2.4, 0.57, -0.61, -2.8, -4.71, -4.4, -3.8, -3.79, -2.2, -2.15, -4.43, -5.9, -6.04, -2.89, -2.31, -2.19, -2.31, -1.36, 0.0, 0.67, 0.57, 0.0, 0.63, 0.0, 0.0, -0.45, 0.0, -10.69, -10.94, -10.94, -11.23, -10.88, -10.88, -10.59, -10.23, -10.23, -10.59, -10.59, -10.88, -10.88, -11.23, -11.28, -10.12, -8.59, -6.7, -5.32, -4.83, -5.08, -5.04, -4.38, -3.94, -3.78, -3.81, -3.22, -2.58, -0.63, 1.2, 1.26, 0.95, 0.95, 0.89, 1.79, 1.6, 0.95, 0.89, -0.0, -1.9, -3.39, -6.17, -5.73, -1.9, -0.0, 0.0, -0.89, -2.24, -5.73, -7.4, -9.16, -9.39, -7.98, -4.47, -3.58, -3.97, -3.51, -1.88, 0.0, 0.0, -0.0, -0.0, 0.8, -0.0, -2.6, -3.2, -2.68, -1.6, -0.6, 1.79, 3.53, 3.53, 2.24, 0.6, -0.61, -1.55, -0.66, 0.0, 0.0, -0.65, -1.4, -3.07, -5.0, -4.14, -4.29, -5.52, -3.85, -2.31, 0.0, 0.69, 1.55, 0.69, 0.0, 1.2, 1.9, -0.45, 0.0, 0.0, -10.69, -10.69, -10.94, -11.23, -10.88, -10.59, -10.23, -10.23, -10.59, -10.65, -10.88, -11.23, -11.23, -10.94, -11.28, -10.99, -9.82, -8.59, -6.97, -6.08, -5.45, -5.67, -5.62, -5.17, -4.51, -3.91, -2.71, -1.7, -0.59, 0.0, 0.0, 0.63, 0.89, 0.89, 2.68, 1.86, 1.2, 1.2, 0.71, -0.0, -1.61, -1.24, -0.0, 1.2, 2.53, 3.82, 2.8, 1.34, 0.0, -1.2, -3.04, -3.13, -1.79, 0.0, 0.0, -0.95, -2.23, -1.86, -0.95, 0.0, 0.0, -0.0, -0.0, 0.0, -0.89, -3.13, -3.58, -3.13, -0.63, 1.9, 2.53, 2.17, 1.79, 1.2, 0.57, 1.24, 2.5, 2.86, 1.9, 0.0, -0.54, -1.16, -2.0, -2.11, -2.2, -2.79, -3.91, -2.23, 0.0, 0.69, 0.76, 0.67, 1.84, 2.23, 1.6, 0.54, 0.0, 0.0, -10.69, -10.69, -10.69, -10.65, -10.3, -10.23, -10.23, -10.23, -10.3, -10.65, -11.23, -11.23, -10.94, -10.94, -11.28, -10.72, -9.82, -9.21, -7.96, -6.96, -6.31, -6.06, -5.62, -4.48, -2.82, -1.67, -0.55, 0.0, 0.0, 0.0, 0.0, 0.0, 0.0, 0.89, 1.79, 2.68, 2.15, 0.71, 0.71, -0.0, -0.0, -0.0, -0.0, 0.57, 2.4, 2.8, 2.8, 2.4, 2.68, 2.68, 2.24, 1.34, 2.24, 2.68, 2.24, 0.0, 0.0, 0.0, 0.0, 0.0, 0.0, 1.34, 1.79, 1.79, 1.34, -0.6, -2.23, -3.13, -0.0, 1.33, 0.65, -0.0, -0.63, 0.0, 0.0, 2.68, 3.82, 3.82, 2.4, 0.63, 0.0, -0.54, -1.33, -1.76, -1.27, -1.88, -2.79, -0.66, 0.0, 0.0, 0.67, 1.93, 2.48, 1.8, 2.0, 1.11, 0.51, 0.51, -10.69, -10.69, -10.69, -10.65, -10.59, -10.23, -10.23, -10.59, -10.65, -10.69, -10.94, -10.94, -10.94, -10.94, -10.94, -10.12, -9.82, -9.82, -8.59, -6.94, -5.64, -5.17, -4.68, -2.84, -0.59, 0.0, 0.0, 0.0, -0.58, -1.11, -1.59, -1.67, -0.51, 0.0, 1.79, 3.2, 2.53, -0.0, -0.0, -0.0, -0.0, -0.0, -0.76, -0.0, -0.0, 1.79, 2.24, 1.79, 2.24, 2.68, 3.58, 3.58, 3.13, 2.68, 2.24, 1.26, 1.58, 2.24, 2.24, 1.79, 1.58, 1.58, 1.26, 2.68, 3.82, 1.2, -0.63, -2.6, -0.8, -0.0, -1.4, -2.15, -2.4, -1.86, -0.0, 1.86, 3.13, 3.32, 2.4, 0.45, -0.45, -1.49, -2.5, -2.21, -1.86, -2.17, -2.91, -1.2, -1.33, -1.11, 0.7, 2.72, 2.4, 1.23, 1.23, 2.0, 1.8, 1.8, -10.69, -10.69, -10.36, -10.65, -10.23, -10.01, -10.23, -10.3, -10.36, -10.69, -10.94, -10.94, -10.94, -10.94, -10.88, -10.18, -10.4, -9.82, -8.24, -5.2, -4.13, -4.58, -4.48, -3.02, -1.54, -1.11, -1.65, -2.39, -2.97, -3.35, -3.37, -3.45, -2.44, -1.24, 0.45, 3.07, 2.86, 1.13, -0.0, -0.85, -0.0, 0.57, -0.0, -0.0, -0.0, 0.0, 1.34, 1.34, 2.24, 2.68, 3.13, 3.58, 3.58, 3.13, 3.13, 2.8, 1.9, 0.0, 0.0, 0.0, 0.0, 0.0, 1.34, 2.12, 2.5, 1.58, -0.45, -1.9, -1.58, -1.34, -1.79, -1.9, -0.61, -0.71, -0.45, -0.0, 0.0, 0.0, 0.0, 0.0, -2.12, -2.63, -3.13, -3.13, -3.13, -3.58, -4.43, -3.6, -2.53, -1.88, 0.0, 1.23, 1.41, 0.55, 0.66, 1.8, 2.0, 2.0, -10.69, -10.69, -10.36, -10.3, -10.01, -10.01, -10.01, -10.3, -10.36, -10.69, -10.94, -10.94, -10.94, -10.69, -10.94, -10.36, -10.69, -9.72, -7.59, -6.14, -5.48, -6.17, -6.43, -6.87, -7.08, -6.71, -6.05, -5.09, -5.46, -5.45, -4.81, -4.74, -3.73, -2.5, -0.45, 1.26, 2.53, 1.6, -0.0, -0.0, -0.0, 1.16, 1.88, 1.9, 0.95, 0.0, 0.0, 1.79, 2.68, 3.13, 3.58, 3.58, 3.58, 3.58, 1.79, 1.86, 2.23, 0.0, 0.0, -1.4, -1.58, 0.0, 0.0, 2.84, 2.23, 1.24, -0.0, 0.0, 0.0, 0.7, 0.76, 1.54, 1.55, 0.0, -2.23, -2.84, -3.07, -3.45, -1.61, -1.24, -1.58, -2.4, -3.07, -3.13, -3.13, -3.58, -3.53, -1.61, -2.21, -1.24, -1.24, -0.66, 0.0, 0.0, 0.0, 0.59, 1.11, 1.11, -10.36, -10.69, -10.36, -10.06, -10.01, -10.01, -10.01, -10.3, -10.36, -10.69, -10.4, -10.4, -10.4, -10.69, -10.94, -10.99, -10.36, -9.94, -9.21, -9.27, -9.31, -9.49, -8.83, -8.59, -9.21, -8.58, -7.6, -6.95, -6.64, -5.95, -5.59, -4.84, -4.4, -2.91, -0.89, -0.0, 1.26, 1.2, 0.53, 0.53, 0.53, 1.2, 1.88, 2.15, 1.86, 1.34, 0.0, 1.79, 2.8, 3.39, 3.39, 3.58, 3.13, 3.13, 3.13, 1.58, 1.4, 1.2, -1.2, -2.4, -2.24, -0.0, 1.4, 1.27, 0.8, 0.57, 0.57, 1.2, 2.17, 4.46, 5.59, 5.3, 3.04, 0.0, -3.85, -7.64, -8.4, -6.54, -3.6, -2.21, -1.88, -1.84, -1.84, -1.61, -1.61, -1.88, -0.53, 0.59, 1.94, 0.57, -1.33, -2.23, -1.23, -0.57, -0.54, 0.0, 0.0, 0.0, -10.36, -10.36, -10.36, -10.06, -10.01, -10.01, -9.72, -10.02, -10.36, -10.4, -10.4, -10.72, -10.72, -10.4, -10.72, -10.99, -10.36, -9.42, -9.66, -10.36, -10.75, -10.45, -9.84, -10.13, -9.84, -9.21, -8.24, -6.98, -5.71, -4.37, -3.64, -3.7, -3.87, -2.63, -0.89, 0.0, 0.63, 1.26, 0.99, 0.57, 1.24, 1.24, 1.9, 2.5, 2.49, 1.2, 1.79, 1.9, 3.2, 3.39, 3.58, 3.13, 3.13, 2.68, 2.4, 2.53, 2.4, 2.24, -0.0, -1.2, -0.57, -0.0, 1.24, 0.8, 0.8, 1.26, 1.26, 1.26, 2.17, 2.68, 3.2, 4.19, 2.48, 1.16, -6.94, -10.38, -11.06, -9.86, -7.06, -3.6, -2.53, -1.6, -1.27, 0.0, 0.0, 0.0, 0.57, 1.27, 1.23, 1.3, 0.0, -1.8, -1.8, -0.61, -0.57, 0.0, 0.0, 0.0, -9.8, -9.8, -10.36, -10.06, -9.72, -9.72, -10.06, -10.09, -10.36, -10.4, -10.4, -10.4, -10.72, -10.72, -10.72, -10.72, -9.77, -9.66, -9.72, -9.82, -9.84, -9.22, -8.93, -9.21, -9.82, -9.21, -8.59, -6.96, -5.45, -2.86, -1.49, -1.79, -2.24, -1.34, 0.0, 0.0, 0.32, 0.63, 0.6, 0.95, 1.26, 1.86, 2.15, 2.68, 3.39, 2.91, 2.4, 2.8, 3.2, 3.58, 3.58, 3.13, 2.68, 2.68, 3.13, 2.8, 2.24, 1.61, 0.65, -0.0, -0.0, 0.54, 1.26, 1.6, 1.26, 2.12, 1.7, 0.63, -0.0, 0.32, 0.0, 0.0, 1.79, 0.0, -4.47, -8.67, -10.6, -10.6, -8.97, -6.11, -3.7, -2.79, -1.84, -0.59, 0.0, 0.59, 0.59, 0.59, 0.0, 0.7, 0.61, 0.0, -0.61, -1.0, -0.6, -0.71, -0.59, -0.59, -9.8, -9.8, -10.09, -9.77, -9.72, -9.72, -10.06, -10.09, -9.8, -10.4, -10.4, -10.4, -10.72, -10.72, -10.72, -10.4, -9.77, -9.72, -9.77, -9.21, -9.22, -8.83, -8.2, -7.96, -8.23, -8.59, -8.59, -7.59, -6.34, -3.47, -1.24, -0.63, -0.89, 0.0, 0.0, 0.0, 0.0, 0.45, 0.89, 0.89, 1.2, 1.7, 2.4, 2.91, 3.39, 3.07, 2.8, 3.13, 3.58, 3.58, 3.58, 3.13, 2.68, 2.68, 2.68, 3.13, 1.34, 0.54, -0.0, 0.8, 1.26, 0.57, 0.6, 1.2, 1.86, 2.12, 1.79, 1.34, 0.0, 0.0, -0.89, -0.89, 0.0, 0.0, -0.89, -4.47, -7.31, -8.79, -8.37, -6.58, -4.77, -3.87, -2.79, -2.23, -1.16, -0.53, 0.0, -0.51, 0.0, 1.27, 2.2, 2.66, 1.13, -0.57, -1.49, -1.0, -0.59, -0.59, -10.09, -10.09, -10.09, -9.77, -9.77, -9.72, -9.77, -10.09, -9.8, -10.12, -10.4, -10.4, -10.72, -10.43, -10.43, -10.4, -9.77, -10.06, -9.48, -9.21, -8.85, -8.83, -8.18, -7.53, -7.31, -7.57, -7.57, -7.59, -6.7, -5.09, -2.84, -1.2, -0.57, 0.0, 0.0, 0.0, 0.0, 0.0, 0.0, 0.45, 0.89, 1.79, 2.68, 2.63, 3.07, 3.07, 2.17, 2.24, 2.68, 2.68, 3.07, 3.13, 2.68, 2.68, 2.68, 2.68, 2.24, 0.63, -0.71, -0.6, 0.0, 0.0, -0.0, 1.86, 2.12, 2.12, 1.79, 1.34, -0.0, 0.0, -1.86, -2.53, -0.79, 0.0, 0.0, 0.0, -1.24, -3.07, -3.93, -3.82, -4.88, -4.77, -4.11, -3.35, -2.53, -2.21, -1.61, -1.16, 0.0, 1.58, 3.35, 5.0, 3.08, 1.13, 0.0, 0.0, 0.0, 0.0, -10.09, -10.09, -9.77, -9.77, -9.77, -9.72, -9.44, -9.8, -9.8, -9.8, -10.12, -10.4, -10.4, -10.43, -10.72, -9.8, -9.77, -9.77, -9.19, -9.21, -9.22, -8.57, -8.83, -8.18, -7.53, -7.55, -7.16, -6.94, -6.7, -5.7, -4.46, -2.82, -1.58, -0.53, -0.57, -0.6, -0.63, 0.0, 0.0, 0.0, 0.63, 1.7, 2.68, 2.68, 2.68, 2.68, 2.24, 2.24, 2.24, 2.63, 3.07, 2.68, 3.39, 3.58, 3.13, 3.13, 2.68, 2.24, -0.0, -1.26, -1.79, 0.0, 0.45, 1.7, 1.7, 1.79, 1.79, 1.7, -0.0, 0.0, -1.7, -2.53, -1.35, 0.0, 1.55, 3.0, 1.13, -2.21, -2.53, -2.53, -3.82, -5.2, -4.6, -4.11, -3.2, -2.5, -1.88, -1.2, 0.0, 1.7, 2.4, 4.11, 3.72, 2.8, 1.76, 1.27, 1.8, 1.8, -9.48, -9.48, -9.77, -9.48, -9.17, -9.17, -9.48, -9.77, -9.8, -9.8, -10.12, -10.12, -10.12, -10.43, -10.4, -10.09, -9.77, -9.77, -9.8, -9.21, -8.85, -8.85, -8.57, -8.18, -8.18, -7.5, -7.29, -6.92, -6.31, -6.08, -5.34, -5.1, -4.08, -3.45, -2.36, -1.73, -1.58, -1.13, -0.61, 0.0, 0.54, 1.24, 2.4, 2.63, 2.91, 2.4, 2.6, 2.24, 2.24, 2.4, 3.07, 3.14, 2.98, 3.2, 2.12, 1.7, 2.4, 2.68, 0.89, -0.45, -2.12, -1.34, 0.0, 1.79, 2.68, 0.89, 0.89, -0.0, -0.63, -1.34, -2.17, -3.07, -3.79, -1.47, 0.7, 2.73, 2.21, -0.6, -2.4, -2.53, -3.14, -4.52, -5.02, -4.3, -3.98, -3.09, -2.15, -0.8, 0.6, 1.7, 1.26, 1.16, 2.88, 2.72, 2.8, 2.66, 2.44, 2.44, -9.19, -9.19, -9.48, -9.48, -9.17, -9.17, -9.48, -9.19, -9.8, -9.8, -9.8, -10.12, -9.82, -9.82, -9.8, -9.77, -9.77, -9.8, -9.82, -9.5, -8.85, -8.85, -8.57, -8.18, -8.18, -7.92, -7.76, -7.55, -6.94, -6.34, -5.46, -4.71, -4.05, -3.4, -2.96, -2.32, -2.16, -1.55, -1.08, -0.51, 0.0, 1.2, 1.61, 2.53, 2.84, 2.84, 1.58, 1.34, 1.6, 1.86, 2.5, 3.07, 3.35, 3.6, 3.6, 2.12, 2.4, 2.4, 1.34, 0.45, -0.89, -1.34, 0.0, 1.34, 0.89, 1.79, -0.45, -1.2, -1.7, -1.79, -2.17, -2.5, -3.48, -3.49, -1.2, 0.0, 1.34, 0.45, -1.26, -2.21, -2.51, -3.2, -4.17, -3.53, -3.58, -2.68, -1.34, 0.0, 1.26, 1.26, 0.6, 0.0, 1.23, 1.84, 1.98, 2.6, 2.4, 2.4, -9.19, -9.19, -9.48, -9.48, -9.17, -9.17, -9.48, -9.19, -9.5, -9.8, -9.8, -10.12, -9.82, -10.12, -9.8, -9.48, -9.48, -9.8, -9.82, -9.21, -8.85, -8.85, -8.57, -7.93, -7.93, -7.53, -7.1, -7.29, -6.92, -6.33, -5.08, -4.45, -4.05, -3.4, -3.4, -2.75, -2.29, -2.14, -1.54, -0.61, 0.0, 0.51, 1.0, 1.24, 2.23, 3.43, 2.15, 0.45, 0.63, 1.49, 2.0, 2.4, 2.68, 3.2, 3.2, 2.68, 2.4, 2.4, 1.2, 1.2, -0.0, -0.45, 0.0, 0.0, 0.45, 0.89, -0.0, -0.63, -0.6, -1.7, -2.17, -2.15, -2.88, -5.09, -6.0, -3.07, -0.0, 0.45, 0.0, -1.24, -1.61, -2.22, -1.98, -2.0, -1.79, -0.95, -0.0, -0.0, 0.45, 0.0, 0.0, 0.0, 0.0, 1.19, 1.3, 2.04, 1.88, 1.88, -9.19, -9.19, -9.48, -9.48, -9.17, -9.17, -9.48, -9.19, -9.5, -9.21, -9.21, -9.52, -10.12, -9.8, -9.48, -9.48, -9.19, -10.12, -9.5, -9.21, -8.85, -8.85, -8.2, -8.2, -7.8, -7.53, -7.1, -6.88, -6.92, -6.07, -5.06, -4.69, -4.03, -3.37, -3.37, -2.89, -2.73, -2.26, -1.65, -1.05, 0.0, 0.0, 0.0, 0.53, 1.61, 1.58, 1.24, 0.57, 0.63, 1.6, 1.86, 1.86, 2.24, 2.63, 2.91, 2.91, 2.4, 2.4, 1.7, 1.26, -0.0, -0.63, -0.45, -0.63, 0.89, 1.2, 0.6, -0.0, -0.0, -1.6, -3.13, -2.53, -1.52, -3.15, -6.58, -6.06, -2.53, -0.63, 0.0, 0.0, -1.61, -2.58, -1.98, -1.61, -1.2, -0.0, -0.0, -0.0, -0.0, -0.0, -0.0, 0.0, 0.0, 0.66, 1.08, 1.19, 1.88, 1.88, -9.19, -9.19, -9.48, -9.17, -9.17, -9.17, -9.19, -9.19, -9.5, -9.21, -9.21, -9.21, -9.5, -9.19, -9.48, -9.48, -9.5, -9.82, -9.5, -9.21, -8.58, -8.58, -8.2, -8.2, -7.55, -7.53, -7.53, -6.88, -6.27, -5.67, -5.04, -4.63, -4.66, -4.0, -3.35, -2.71, -2.89, -2.23, -1.63, -1.12, -0.53, 0.0, 0.0, 0.0, 0.53, 0.0, 0.0, 0.57, 1.13, 1.61, 1.84, 1.61, 1.88, 2.24, 2.24, 2.6, 2.6, 2.6, 2.4, 1.24, -0.0, -0.6, -0.95, -0.63, 0.0, 0.63, -0.0, 0.0, -0.63, -1.58, -3.32, -3.82, -2.07, 0.0, -1.56, -5.3, -5.28, -2.51, -1.2, -0.54, -1.0, -2.5, -2.53, -2.23, -1.61, -0.99, -0.45, -0.0, 0.71, 0.57, -0.0, -0.0, 0.0, 0.0, 0.57, 1.08, 1.19, 1.19, -9.19, -9.19, -9.48, -9.17, -9.17, -9.48, -9.19, -9.19, -9.21, -9.21, -9.21, -9.21, -9.21, -9.19, -9.17, -9.48, -9.5, -9.82, -9.21, -9.21, -8.86, -8.85, -8.58, -8.2, -7.53, -7.53, -7.76, -6.9, -6.33, -5.02, -5.67, -5.69, -5.04, -4.42, -4.0, -2.86, -2.33, -2.21, -1.71, -1.1, -0.57, -0.53, 0.0, 0.0, 0.0, 0.0, 0.0, 0.54, 1.19, 1.73, 1.76, 1.8, 1.84, 1.2, 1.24, 1.79, 2.24, 2.17, 2.4, 1.9, -0.0, -0.0, -0.95, -0.4, -0.0, 1.34, 0.45, -0.89, -1.86, -2.15, -3.07, -3.07, -3.04, -1.49, 0.0, -1.5, -4.6, -3.72, -2.15, -1.6, -0.59, -1.16, -1.16, -1.58, -1.57, -1.57, -1.4, 0.0, 1.2, 1.2, 0.63, 0.0, 0.0, 0.0, 0.59, 0.63, 1.19, 1.19, -9.19, -9.19, -9.19, -8.88, -8.88, -9.19, -9.19, -9.19, -9.21, -9.21, -9.21, -9.21, -9.21, -9.19, -9.17, -9.19, -9.5, -9.21, -9.21, -8.86, -8.86, -9.22, -8.85, -8.2, -7.53, -7.76, -7.53, -6.9, -6.29, -6.09, -5.92, -5.69, -5.7, -4.63, -3.97, -3.32, -2.69, -2.33, -1.69, -1.16, -0.55, -0.52, 0.0, 0.0, 0.0, 0.0, 0.53, 1.14, 1.05, 1.16, 1.19, 1.11, 1.13, 1.16, 1.2, 1.24, 1.26, 1.79, 1.79, 1.7, 0.6, 0.0, 0.0, -0.0, 0.6, 1.7, 1.2, 0.0, -1.26, -1.49, -1.26, -1.34, -2.68, -3.49, -2.12, -0.71, -1.13, -1.86, -1.0, -0.59, 0.0, 0.0, 0.0, -0.67, -1.12, -1.63, -1.67, -0.51, 0.63, 0.45, 0.0, 0.0, -0.63, -0.54, 0.0, 0.57, 0.55, 0.55, -8.88, -8.88, -9.19, -9.19, -9.19, -9.19, -9.19, -9.19, -9.21, -9.21, -9.21, -9.21, -9.5, -9.19, -9.17, -9.19, -9.5, -9.21, -8.87, -8.87, -9.21, -9.22, -9.22, -8.85, -7.93, -7.53, -7.53, -6.9, -7.16, -6.68, -6.31, -5.45, -5.08, -4.66, -4.0, -3.32, -2.83, -2.19, -1.67, -1.69, -1.07, -0.55, 0.0, 0.0, 0.0, 0.53, 0.53, 0.53, 0.58, 0.59, 0.61, 0.55, 0.57, 0.51, 0.53, 0.54, 0.71, 0.57, 1.2, 1.34, 0.0, 0.0, 0.0, 0.0, 0.63, 1.26, 1.26, 0.4, 0.0, -0.89, -0.63, 0.0, -2.12, -5.46, -5.94, -2.2, 0.0, 1.2, 1.33, 1.41, 0.71, 0.0, 0.0, -0.69, -1.32, -1.09, -1.12, 0.0, 0.6, 0.45, 0.0, -0.89, -1.6, -1.9, -1.84, 0.0, 0.0, 0.0, -8.88, -8.88, -8.88, -9.19, -9.19, -9.19, -9.19, -9.19, -8.91, -9.21, -9.21, -9.21, -9.19, -9.19, -8.87, -9.19, -9.19, -8.59, -8.59, -8.87, -9.21, -9.5, -9.22, -8.85, -8.2, -7.55, -7.29, -7.13, -6.9, -6.92, -6.29, -5.26, -4.42, -4.44, -4.0, -3.52, -3.35, -2.86, -2.33, -1.78, -1.69, -1.09, -0.56, 0.0, 0.0, 0.0, 0.0, 0.0, 0.0, 0.0, 0.0, 0.0, 0.0, 0.0, 0.0, 0.53, 0.65, 0.54, 0.57, 0.95, 1.34, 1.34, 1.34, 0.0, 0.0, -0.0, -0.0, -0.0, -0.0, -0.6, -0.95, -1.34, -2.21, -4.46, -5.52, -2.9, 0.71, 4.37, 4.5, 2.97, 0.0, -0.69, -1.36, -2.0, -1.36, -1.03, 0.0, 0.0, 0.57, 0.63, 0.0, -0.89, -1.7, -2.15, -2.53, -2.51, -0.63, -0.63, -8.58, -8.58, -8.58, -8.88, -8.87, -8.87, -8.87, -8.87, -8.59, -8.87, -9.21, -9.21, -8.87, -8.87, -8.87, -9.19, -8.87, -8.87, -8.59, -8.59, -8.59, -8.86, -8.58, -8.85, -8.58, -7.55, -7.13, -7.13, -6.9, -6.5, -5.86, -5.23, -4.6, -4.42, -4.0, -3.52, -3.35, -2.86, -2.86, -2.21, -1.71, -1.73, -1.1, -0.57, 0.0, 0.0, 0.0, 0.0, 0.0, 0.0, 0.0, 0.0, 0.0, 0.0, 0.0, 0.0, 0.0, 0.0, 0.0, 0.6, 0.63, 0.89, 1.34, 0.0, 0.0, 0.0, -0.0, -0.0, -0.0, -0.0, -0.95, -1.79, -1.49, -1.45, -1.5, -0.77, 0.73, 3.11, 2.95, 0.67, 0.0, -1.4, -1.3, -1.35, -0.7, 0.0, 0.0, 0.57, 1.13, 1.24, 0.0, -0.45, -1.7, -2.4, -2.5, -2.53, -2.0, -2.0, -8.58, -8.58, -8.58, -8.58, -8.58, -8.87, -8.87, -8.87, -8.87, -8.59, -8.59, -8.59, -8.87, -8.87, -8.87, -9.19, -8.87, -8.58, -8.87, -8.59, -8.87, -8.86, -8.86, -8.58, -8.58, -7.95, -6.9, -6.9, -6.46, -6.25, -5.62, -5.67, -5.26, -4.6, -3.94, -3.97, -3.32, -2.83, -2.86, -2.21, -2.23, -1.73, -1.12, 0.0, 0.0, 0.0, -0.56, -0.57, -0.53, -0.53, -0.54, 0.0, 0.0, 0.0, 0.0, 0.0, 0.0, 0.0, 0.0, 0.0, 0.0, 0.0, 0.0, 0.0, 0.0, 0.0, 0.63, 0.6, 0.6, -0.0, -0.0, -0.6, 0.0, 0.0, 0.0, -0.77, -1.45, -2.23, -2.34, -2.06, -2.11, -0.69, -0.63, -0.57, 0.0, 0.0, 0.63, 1.23, 1.23, 1.13, 0.0, -0.45, -0.89, -1.2, -0.6, -0.57, 0.0, -1.84, -8.87, -8.87, -8.58, -8.58, -8.58, -8.87, -8.87, -8.87, -8.87, -8.59, -8.59, -8.59, -8.87, -8.87, -8.87, -9.19, -9.5, -8.58, -8.24, -8.23, -8.87, -8.59, -8.59, -8.59, -8.22, -8.22, -7.16, -6.9, -6.9, -6.25, -5.83, -5.64, -5.23, -5.04, -4.6, -3.94, -3.3, -3.49, -2.83, -2.21, -2.23, -1.73, -1.65, -0.81, 0.0, 0.0, -1.18, -1.76, -1.14, -1.16, -0.54, -0.61, -0.55, 0.0, 0.0, 0.0, 0.0, 0.0, 0.0, 0.0, 0.0, 0.0, 0.0, 0.0, 0.0, 0.0, -0.0, -0.0, -0.0, -0.0, -0.0, -0.0, 0.0, 0.0, 0.73, 0.73, -1.35, -4.71, -6.29, -5.4, -3.37, -1.26, -0.67, 0.0, 0.0, 0.57, 1.35, 1.35, 1.19, 0.63, 0.0, 0.0, 0.0, 0.89, 1.79, 2.6, 2.91, 0.0, -8.87, -8.87, -8.58, -8.58, -8.58, -8.58, -8.87, -8.87, -8.87, -8.87, -8.87, -8.87, -8.87, -8.87, -8.87, -9.19, -9.5, -8.87, -8.24, -8.24, -8.59, -8.87, -8.59, -7.96, -7.96, -7.96, -7.57, -6.92, -6.25, -6.46, -5.8, -5.62, -5.0, -5.02, -4.6, -4.6, -3.94, -3.3, -2.83, -2.86, -2.21, -2.23, -1.76, -1.67, -0.76, -1.16, -1.71, -1.8, -1.7, -1.19, -0.55, -0.55, -0.55, -0.57, 0.0, 0.0, 0.0, -0.61, -0.65, -0.54, 0.0, 0.0, 0.0, 0.0, 0.0, 0.0, -0.0, -0.0, -0.0, -0.0, 0.0, -0.0, -0.89, -0.57, 0.88, 3.7, 2.26, -0.7, -3.6, -4.8, -2.72, -1.35, -0.61, 0.0, 1.23, 1.35, 1.36, 1.36, 0.67, 0.64, 0.0, 1.2, 2.17, 2.68, 3.13, 3.51, 3.45, 2.91, -8.87, -8.87, -8.58, -8.58, -8.58, -8.58, -8.58, -8.87, -8.87, -8.87, -8.87, -8.87, -8.87, -8.87, -8.87, -8.59, -9.5, -8.87, -7.96, -7.96, -7.96, -8.59, -8.87, -8.23, -7.59, -7.59, -7.32, -6.92, -6.27, -6.5, -5.8, -5.83, -5.4, -5.23, -4.57, -4.6, -3.94, -3.49, -3.49, -2.83, -2.86, -2.21, -2.26, -2.29, -2.96, -2.26, -1.63, -1.7, -1.23, -0.57, -0.57, -0.57, -0.57, -0.51, 0.0, 0.0, -0.59, -0.61, -0.53, -0.65, -0.57, -0.6, 0.0, 0.0, 0.0, 0.0, -0.45, 0.0, -0.0, -0.0, 0.0, -0.63, -1.2, -0.89, 0.8, 2.3, 3.79, 1.47, 0.0, -0.66, -0.51, 0.0, 0.63, 1.45, 1.32, 0.67, 0.0, 0.0, 0.0, 0.0, 1.16, 3.07, 3.07, 2.68, 2.6, 2.15, 1.88, 1.88, -8.87, -8.87, -8.87, -8.58, -8.58, -8.58, -8.58, -8.58, -8.58, -8.58, -8.87, -8.87, -8.87, -8.87, -8.87, -8.59, -8.91, -8.87, -7.96, -7.6, -7.96, -8.23, -8.23, -8.23, -7.59, -7.33, -6.94, -6.94, -6.27, -6.27, -5.83, -5.83, -5.62, -5.2, -5.0, -4.57, -4.4, -3.97, -3.49, -3.32, -2.83, -2.86, -2.89, -2.92, -2.73, -2.73, -1.63, -1.05, -0.61, -0.55, 0.0, 0.0, 0.0, 0.0, 0.0, 0.0, -0.61, -0.61, -1.16, -1.2, -1.24, -0.8, -0.6, 0.0, 0.0, 0.0, 0.0, 0.0, 0.45, -0.0, -0.32, -1.2, -0.95, -0.89, -0.63, 0.0, 0.0, 1.36, 1.45, 1.47, 1.94, 3.32, 3.27, 2.89, 2.01, 0.73, 0.0, -0.64, -0.64, 0.0, 2.0, 3.07, 2.24, 1.2, 0.57, 0.0, 0.0, 0.0, -8.56, -8.56, -8.87, -8.58, -8.58, -8.58, -8.58, -8.58, -8.58, -8.58, -8.58, -8.58, -8.87, -8.87, -8.87, -8.59, -8.59, -9.19, -8.24, -7.6, -7.6, -7.96, -8.23, -7.96, -7.59, -7.33, -6.94, -6.94, -6.53, -6.27, -5.83, -5.62, -5.62, -5.17, -5.2, -4.54, -4.38, -3.94, -3.97, -3.49, -3.32, -3.01, -2.86, -2.89, -2.73, -2.23, -1.73, -1.1, -0.57, -0.53, 0.0, 0.0, 0.0, 0.0, 0.0, 0.0, 0.0, -0.61, -1.16, -1.2, -1.2, -1.24, -1.26, -1.58, 0.0, 0.0, 1.79, 1.79, 0.45, -0.0, -0.63, -1.2, -1.2, -0.89, -1.6, -1.9, -0.66, 0.0, 2.21, 4.8, 7.24, 7.93, 6.27, 4.24, 2.02, 0.67, 0.0, 0.0, -0.57, 0.71, 1.79, 1.34, 0.0, -0.6, -0.57, -0.71, -0.71, -0.71, -8.56, -8.56, -8.56, -8.87, -8.58, -8.58, -8.58, -8.58, -8.58, -8.58, -8.58, -8.58, -8.58, -8.87, -8.87, -8.59, -8.87, -8.87, -8.58, -7.6, -7.6, -7.6, -7.96, -7.96, -7.59, -7.33, -6.94, -6.94, -6.53, -6.27, -6.27, -5.62, -5.86, -5.2, -4.54, -4.54, -4.57, -3.94, -3.97, -3.97, -3.32, -3.32, -3.35, -2.89, -2.73, -2.26, -2.26, -1.73, -1.1, -1.12, -0.58, -0.59, 0.0, 0.0, 0.0, 0.0, 0.0, -0.53, -0.53, -1.2, -1.2, -1.9, -1.58, -1.24, 0.0, 0.0, 1.79, 0.45, 0.0, -0.95, -1.2, -1.2, -0.89, -0.89, -0.6, -0.6, 0.0, 0.0, 2.28, 6.09, 9.31, 9.95, 6.87, 4.17, 2.82, 2.12, 1.32, 0.63, 0.0, 0.0, 0.0, -1.34, -1.34, -1.34, -1.6, -1.26, -1.26, -1.26, -8.56, -8.56, -8.56, -8.56, -8.58, -8.58, -8.58, -8.58, -8.58, -8.58, -8.58, -8.58, -8.58, -8.58, -8.24, -8.24, -8.24, -8.58, -8.24, -8.24, -7.6, -7.6, -7.96, -7.96, -7.59, -7.33, -7.33, -6.94, -6.94, -6.53, -6.27, -5.83, -5.62, -5.4, -5.2, -4.54, -4.57, -4.12, -3.94, -3.97, -3.97, -3.52, -3.35, -2.89, -2.73, -2.92, -2.26, -2.26, -1.73, -1.2, -1.12, -1.14, -0.53, -0.54, -0.55, 0.0, -0.51, -0.61, -0.53, -1.2, -1.61, -1.9, -1.9, -1.58, -0.57, 0.0, 0.0, 0.0, -0.0, -1.2, -2.17, -1.79, -0.89, 0.0, 0.0, 0.45, 0.57, 0.59, 3.0, 6.01, 8.27, 8.2, 6.28, 4.17, 3.46, 2.75, 1.32, 0.66, 0.4, 0.0, -1.6, -1.86, -1.7, -1.7, -1.34, -1.2, -1.2, -1.2, -8.56, -8.56, -8.56, -8.56, -8.28, -8.58, -8.58, -8.58, -8.58, -8.58, -8.24, -8.24, -8.58, -8.58, -7.96, -8.24, -7.61, -7.95, -7.95, -7.95, -7.6, -8.24, -7.96, -7.96, -7.59, -7.33, -7.33, -6.94, -6.94, -6.94, -6.53, -6.27, -5.83, -5.62, -5.4, -5.2, -4.54, -4.08, -4.12, -3.94, -3.97, -3.78, -3.52, -3.56, -2.89, -2.92, -2.92, -2.26, -2.26, -1.63, -1.76, -1.65, -1.14, -1.16, -0.55, -0.57, -0.59, -0.51, -0.61, -1.2, -1.2, -1.61, -1.9, -1.9, -0.99, 0.0, 0.0, 0.0, 0.0, -1.34, -2.24, -1.79, -0.45, 0.0, 0.89, 0.89, 1.2, 1.88, 3.48, 5.05, 6.08, 6.2, 5.9, 6.27, 5.54, 3.27, 0.63, 0.54, 0.0, -1.86, -1.9, -1.9, -1.24, -0.95, -0.89, -0.63, -0.63, -0.63, -8.56, -8.56, -8.56, -8.56, -8.24, -8.24, -8.58, -8.58, -8.24, -8.24, -8.24, -8.24, -8.24, -7.96, -7.96, -7.61, -7.61, -7.61, -7.61, -7.61, -7.61, -8.24, -8.24, -7.96, -7.59, -7.33, -7.33, -6.94, -6.94, -6.94, -6.53, -6.53, -6.27, -5.86, -5.86, -5.64, -5.2, -4.54, -4.08, -3.91, -3.94, -3.97, -3.52, -3.35, -3.37, -2.89, -2.92, -2.92, -2.26, -2.26, -1.76, -1.65, -1.67, -1.67, -1.07, -1.08, -1.11, -1.13, -1.16, -1.0, -1.2, -1.61, -1.9, -1.9, -1.86, -1.26, 0.0, 0.0, 0.0, 0.0, 0.0, -0.89, -0.0, -0.0, 0.63, 0.8, 1.34, 2.6, 3.6, 4.0, 3.84, 4.71, 6.87, 8.38, 7.02, 4.28, 1.13, 0.32, -0.0, -0.6, -1.24, -1.0, -0.57, -0.63, 0.0, 0.0, 0.0, 0.0, -8.56, -8.56, -8.24, -8.24, -8.24, -7.96, -8.24, -8.24, -8.24, -8.24, -8.24, -8.24, -7.96, -7.95, -7.61, -7.61, -7.61, -7.61, -7.61, -7.61, -7.61, -7.96, -8.24, -8.24, -7.87, -7.6, -7.33, -7.33, -6.94, -6.94, -6.94, -6.53, -6.53, -6.29, -5.86, -5.64, -5.2, -5.23, -4.76, -4.57, -4.12, -3.94, -3.97, -3.52, -3.56, -3.37, -2.89, -2.92, -2.4, -2.26, -2.12, -1.76, -1.8, -1.67, -1.7, -1.73, -1.57, -1.58, -1.13, -1.16, -1.2, -1.61, -2.15, -2.15, -2.4, -1.2, -0.8, -0.63, 0.0, 0.0, 0.45, 0.0, -0.0, -0.0, -0.0, 0.63, 1.2, 2.24, 3.07, 3.6, 3.14, 3.79, 6.01, 6.79, 5.62, 3.44, 0.4, 0.8, 1.34, 0.45, -0.45, -0.6, -0.0, -0.0, 0.0, 0.0, 0.0, 0.0, -7.95, -8.24, -7.95, -8.24, -8.24, -7.96, -7.96, -8.24, -8.24, -8.24, -8.24, -8.24, -7.96, -7.61, -7.61, -7.61, -7.61, -7.61, -7.61, -7.61, -8.24, -7.96, -7.96, -7.96, -7.6, -7.6, -7.6, -7.6, -6.94, -6.94, -6.94, -6.94, -6.53, -6.29, -5.86, -5.64, -5.67, -5.23, -5.23, -4.57, -4.38, -4.12, -4.16, -3.97, -3.52, -3.56, -3.37, -2.73, -2.92, -2.26, -2.26, -2.29, -2.14, -2.16, -2.36, -2.18, -2.2, -1.76, -1.8, -1.61, -1.88, -1.61, -2.15, -2.5, -2.4, -1.6, -1.34, -0.89, -0.0, -0.0, -0.0, 0.89, 0.63, -0.0, -0.0, -0.0, 0.95, 1.7, 2.24, 2.4, 2.53, 3.14, 3.49, 3.55, 2.97, 0.59, 0.0, 0.0, 0.45, 0.63, 0.0, -0.63, 0.0, -0.0, 0.32, 0.89, 0.89, 0.89, -8.24, -8.24, -7.95, -7.95, -8.24, -8.24, -7.96, -7.96, -8.24, -8.24, -8.24, -7.96, -7.95, -7.61, -7.61, -7.61, -7.95, -8.24, -8.24, -7.96, -7.96, -7.96, -7.96, -7.6, -7.6, -7.6, -7.6, -7.6, -7.6, -7.6, -6.94, -6.94, -6.7, -6.29, -6.29, -5.89, -5.67, -5.67, -5.02, -5.02, -4.8, -4.6, -3.94, -3.97, -3.78, -3.52, -3.56, -3.37, -2.73, -2.92, -2.26, -2.29, -2.29, -2.32, -2.36, -2.36, -2.4, -2.44, -2.48, -1.84, -1.61, -1.88, -2.5, -2.5, -2.4, -1.49, -1.79, -1.7, -1.58, -1.24, -0.57, 0.0, 0.0, 0.0, -0.0, -0.0, 0.6, 1.6, 1.7, 1.79, 2.4, 2.21, 2.53, 1.35, 0.0, 0.0, 0.0, 0.0, -0.89, -0.63, -0.57, -0.57, 0.0, -0.0, 0.63, 0.89, 0.89, 0.89, -8.24, -8.24, -8.24, -7.95, -7.95, -8.24, -8.24, -7.96, -7.96, -7.96, -8.24, -7.61, -7.61, -7.61, -7.61, -8.24, -7.96, -7.96, -7.96, -7.96, -7.96, -7.96, -7.96, -7.6, -7.6, -7.6, -7.6, -7.6, -7.6, -7.6, -7.6, -7.22, -6.7, -6.29, -6.56, -5.89, -5.67, -5.67, -5.02, -5.26, -5.04, -4.6, -4.4, -4.16, -3.97, -4.0, -3.35, -3.56, -2.89, -2.92, -2.75, -2.26, -2.29, -2.8, -2.8, -2.82, -2.84, -2.86, -2.22, -2.23, -2.23, -1.88, -2.21, -2.5, -2.0, -1.49, -1.7, -1.79, -1.86, -2.21, -2.5, -2.17, -1.7, -1.26, 0.0, 0.0, -0.0, 1.2, 1.34, 1.34, 1.2, 1.9, 1.61, 0.0, 0.0, 0.0, 0.0, -0.89, -2.24, -2.24, -2.4, -1.58, 0.0, -0.0, 0.63, 0.89, 0.89, 0.89, -8.24, -8.24, -8.24, -7.95, -7.95, -8.24, -8.24, -7.96, -8.24, -7.61, -7.61, -7.61, -7.61, -7.61, -8.24, -7.96, -7.96, -7.96, -7.96, -7.96, -7.96, -7.96, -7.96, -7.6, -7.6, -7.6, -7.6, -7.6, -7.6, -7.6, -7.6, -7.6, -6.96, -6.96, -6.31, -6.31, -5.67, -5.67, -5.02, -5.26, -5.04, -4.6, -4.63, -4.63, -3.97, -4.0, -4.0, -3.35, -3.37, -2.73, -2.92, -2.75, -2.77, -3.0, -2.8, -2.82, -2.84, -3.12, -2.86, -2.86, -2.51, -2.53, -2.21, -2.5, -1.86, -1.49, -1.49, -1.26, -0.63, -1.34, -2.6, -3.07, -3.13, -2.68, -1.7, -0.45, 0.0, 0.0, 0.45, 0.89, 0.89, 0.95, 1.35, 1.47, 1.42, 1.36, 0.0, -1.79, -3.13, -3.58, -3.09, -2.4, -0.45, -0.0, 0.8, 1.2, 1.2, 1.2, -7.93, -7.93, -8.24, -8.24, -7.95, -7.95, -8.24, -7.95, -7.61, -7.61, -7.61, -7.61, -7.61, -7.61, -8.24, -7.96, -8.24, -8.24, -8.24, -8.24, -8.24, -7.96, -7.96, -7.96, -7.6, -7.6, -7.6, -7.6, -7.6, -7.6, -7.6, -7.6, -6.96, -6.96, -6.31, -6.31, -5.92, -5.92, -5.69, -5.26, -5.26, -5.04, -4.63, -4.63, -4.42, -4.0, -4.0, -3.56, -3.37, -3.37, -2.92, -2.75, -2.77, -3.0, -3.22, -3.47, -3.49, -3.49, -2.86, -2.86, -2.84, -2.23, -2.53, -2.21, -2.15, -1.49, -1.26, -0.6, 0.0, 0.0, -1.2, -1.79, -3.07, -3.07, -2.68, -2.24, -0.63, -0.45, 0.0, 0.0, 0.0, 0.0, 1.13, 2.2, 2.23, 1.3, 0.71, -1.2, -2.63, -3.53, -3.58, -2.24, -0.45, 0.45, 2.24, 3.07, 3.07, 3.07, -7.93, -7.93, -7.93, -8.24, -8.24, -7.61, -7.61, -7.61, -7.33, -7.61, -7.61, -7.61, -7.33, -7.96, -7.96, -8.24, -8.24, -8.24, -8.24, -8.24, -8.24, -8.24, -7.96, -7.96, -7.96, -7.6, -7.6, -7.6, -7.6, -7.6, -7.6, -7.33, -6.96, -6.97, -6.97, -6.33, -6.33, -5.69, -5.69, -5.69, -5.26, -5.04, -4.63, -4.63, -4.66, -4.0, -4.0, -4.03, -3.37, -3.37, -3.4, -3.4, -3.21, -3.45, -3.22, -3.47, -3.49, -3.49, -3.2, -3.48, -2.86, -2.84, -2.53, -2.21, -2.5, -1.86, -1.26, -0.63, 0.0, -0.63, 0.0, -0.45, -2.17, -2.91, -2.17, -1.79, -1.34, -1.34, -1.34, -0.89, -0.45, 0.0, 0.0, 1.27, 1.41, 0.7, 0.0, -0.89, -1.6, -2.0, -2.4, -1.34, 0.0, 1.2, 3.13, 3.53, 3.53, 3.53, -7.6, -7.6, -7.93, -7.93, -7.93, -7.61, -7.61, -7.33, -7.61, -7.61, -7.61, -7.6, -7.96, -7.96, -7.96, -8.24, -8.24, -8.24, -8.24, -8.24, -8.24, -8.24, -8.24, -7.96, -7.96, -7.96, -7.6, -7.6, -7.33, -7.33, -7.33, -7.33, -6.96, -6.97, -6.97, -6.33, -6.33, -5.69, -5.69, -5.69, -5.04, -5.04, -5.29, -4.63, -4.66, -4.44, -4.03, -4.03, -3.81, -3.37, -3.4, -3.42, -3.21, -3.45, -3.47, -3.47, -3.49, -3.49, -3.49, -3.48, -3.16, -2.84, -2.53, -2.53, -2.5, -2.15, -1.86, -1.2, -1.2, -0.89, -0.45, -0.89, -2.23, -2.53, -1.9, -1.34, -1.34, -1.34, -1.34, -1.34, -0.89, -0.63, -0.57, 0.0, 0.0, 0.0, 0.0, -0.54, -0.6, -0.63, -0.45, 0.0, 0.4, 1.58, 3.53, 4.02, 4.02, 4.02, -7.3, -7.3, -7.6, -7.61, -7.61, -7.32, -7.61, -7.33, -7.61, -7.61, -7.89, -7.96, -7.96, -7.96, -7.96, -8.24, -8.24, -8.24, -8.24, -8.24, -8.24, -8.24, -8.24, -8.24, -8.24, -7.96, -7.6, -7.33, -7.33, -7.33, -7.33, -6.96, -6.97, -6.97, -6.71, -6.71, -6.33, -6.34, -5.95, -5.7, -5.7, -5.29, -5.29, -5.06, -4.42, -4.44, -4.24, -4.03, -3.81, -3.81, -3.6, -3.42, -3.42, -3.45, -3.47, -3.47, -3.49, -3.78, -3.49, -3.48, -3.48, -3.16, -2.84, -2.79, -2.79, -2.5, -2.4, -1.7, -1.79, -1.34, -1.34, -1.2, -1.9, -2.53, -2.68, -2.68, -2.17, -2.12, -1.79, -1.34, -0.89, -1.34, -1.58, -1.33, -0.67, 0.0, 0.0, -0.57, -1.33, -1.16, -0.54, 0.0, 0.4, 2.15, 3.39, 4.02, 4.02, 4.02, -7.3, -7.3, -7.3, -7.6, -7.32, -7.32, -7.61, -7.33, -7.61, -7.61, -8.24, -7.96, -7.96, -7.96, -8.24, -8.24, -8.24, -8.24, -8.24, -8.24, -8.24, -8.24, -8.24, -8.24, -8.24, -8.24, -7.61, -7.61, -7.61, -7.61, -7.61, -6.97, -6.97, -6.97, -6.71, -6.61, -6.34, -6.34, -5.95, -5.7, -5.7, -5.29, -5.06, -5.06, -4.42, -4.66, -4.44, -4.03, -4.03, -3.81, -4.05, -4.08, -3.84, -3.45, -3.72, -3.47, -3.49, -3.78, -3.49, -3.48, -3.48, -3.43, -2.84, -3.14, -2.79, -3.07, -2.5, -2.0, -2.12, -2.17, -2.17, -1.34, -0.63, -1.6, -2.6, -3.13, -3.13, -1.79, 0.0, -0.45, -0.89, -1.34, -1.9, -1.84, -1.41, -0.69, 0.0, -0.61, -1.23, -1.23, -1.27, -0.65, 0.57, 2.5, 3.6, 3.97, 3.97, 3.97, -7.3, -7.3, -7.3, -7.3, -7.6, -7.32, -7.61, -7.33, -7.95, -7.95, -8.24, -8.24, -8.24, -8.24, -8.24, -8.24, -8.24, -8.24, -8.24, -8.24, -8.24, -8.24, -7.95, -7.95, -7.95, -7.61, -7.61, -7.61, -7.61, -7.61, -7.33, -6.97, -6.97, -6.33, -6.33, -6.34, -6.34, -6.34, -5.95, -5.7, -5.7, -5.29, -5.06, -5.06, -5.32, -4.66, -4.44, -4.24, -4.03, -4.03, -4.05, -4.08, -3.84, -4.1, -4.12, -3.84, -3.83, -4.11, -3.79, -4.07, -3.48, -3.43, -3.43, -3.14, -2.79, -2.79, -2.68, -2.4, -2.0, -2.4, -1.86, -0.63, 0.0, 0.0, -0.89, -2.24, -2.63, -0.0, 0.0, -0.45, -0.89, -2.12, -2.5, -2.51, -2.11, -0.71, 0.0, 0.0, 0.0, -0.61, -1.23, -0.59, 1.16, 3.14, 4.09, 4.0, 4.0, 4.0, -7.3, -7.3, -7.3, -7.3, -7.6, -7.32, -7.61, -7.61, -7.95, -8.24, -8.24, -8.24, -8.24, -8.24, -8.24, -8.24, -8.24, -8.24, -8.24, -8.24, -8.24, -7.95, -7.95, -7.95, -7.61, -7.61, -7.61, -7.61, -7.61, -7.33, -6.97, -6.97, -6.71, -6.33, -6.08, -6.34, -6.34, -6.34, -6.08, -5.7, -5.7, -5.7, -5.06, -5.32, -5.08, -4.66, -4.44, -4.44, -4.45, -4.03, -4.05, -4.08, -4.08, -4.1, -3.85, -3.84, -4.12, -4.11, -3.79, -4.07, -3.73, -3.78, -3.43, -3.09, -3.14, -3.14, -3.07, -2.8, -2.4, -2.4, -1.9, -0.57, 0.0, 1.79, 0.0, -1.7, -2.0, -0.0, -0.0, -0.89, -1.79, -2.6, -3.07, -3.14, -2.66, -1.45, 0.0, 0.0, 0.0, 0.0, 0.0, 0.66, 1.8, 3.16, 3.48, 3.49, 3.49, 3.49, -7.3, -7.3, -7.3, -7.3, -7.6, -7.32, -7.61, -7.61, -7.95, -8.24, -8.24, -8.24, -8.24, -8.24, -8.24, -8.24, -8.24, -8.24, -8.24, -8.24, -8.24, -7.95, -7.95, -7.95, -7.61, -7.61, -7.61, -7.61, -7.61, -7.33, -6.97, -6.97, -6.71, -6.33, -6.08, -6.34, -6.34, -6.34, -6.08, -5.7, -5.7, -5.7, -5.06, -5.32, -5.08, -4.66, -4.44, -4.44, -4.45, -4.03, -4.05, -4.08, -4.08, -4.1, -3.85, -3.84, -4.12, -4.11, -3.79, -4.07, -3.73, -3.78, -3.43, -3.09, -3.14, -3.14, -3.07, -2.8, -2.4, -2.4, -1.9, -0.57, 0.0, 1.79, 0.0, -1.7, -1.26, -0.0, -0.0, -0.89, -1.79, -3.07, -3.07, -3.49, -3.43, -2.2, -0.74, 0.0, 0.0, 0.72, 1.3, 2.11, 2.98, 2.98, 2.79, 2.84, 2.84, 2.84]}]